                ,  0.195,  0.292,  0.389,  0.486,  0.583,  0.680,  0.777,  0.874,  0.971,  1.068,  1.165,  1.262,  1.359,  1.456,  1.553,  1.651,  1.748,  1.845,  1.942,  2.039,  2.136,  2.233,  2.330,  2.427,  2.524,  2.621,  2.718,  2.815,  2.912,  3.009,  3.106,  3.203,  3.300,  3.397,  3.494,  3.591,  3.688,  3.785,  3.882,  3.979,  4.076,  4.173,  4.270,  4.367,  4.464,  4.561,  4.658,  4.755,  4.852,  4.950,  5.047,  5.144,  5.241,  5.338,  5.435,  5.532,  5.629,  5.726,  5.823,  5.920,  6.017,  6.114,  6.211,  6.308,  6.405,  6.502,  6.599,  6.696,  6.793,  6.890,  6.987,  7.084,  7.181,  7.278,  7.375,  7.472,  7.569,  7.666,  7.763,  7.860,  7.957,  8.054,  8.151,  8.249,  8.346,  8.443,  8.540,  8.637,  8.734,  8.831,  8.928,  9.025,  9.122,  9.219,  9.316,  9.413,  9.510,  9.607
2010/10/27 00:00,  999.0,    0.8,    0.9,  999.0,  999.0,    4.0,    3.5,    3.9,    4.3,  999.0,  999.0,  999.0,  999.0,  999.0,  999.0,    2.7,  999.0,  999.0,  999.0,  999.0,    2.9,  999.0,  999.0,  999.0,  999.0,  999.0,  999.0,  999.0,  999.0,    5.7,  999.0,  999.0,  999.0,  999.0,  999.0,  999.0,  999.0,   -0.1,  999.0,  999.0,   -0.4,  999.0,  999.0,  999.0,  999.0,  999.0,  999.0,  999.0,   -2.0,   -2.6,   -3.6,   -3.9,   -3.7,   -3.2,   -3.3,   -3.2,   -3.6,   -3.7,   -3.7,   -3.8,   -4.1,   -4.5,   -4.6,   -5.7,   -6.6,   -7.4,   -7.5,   -7.4,   -7.4,   -7.1,   -6.3,   -5.4,   -4.9,   -5.0,   -4.9,   -4.7,   -4.1,   -4.4,   -4.1,   -3.9,   -4.1,   -4.8,   -5.8,   -6.5,   -6.4,   -6.3,   -7.0,   -7.5,   -8.1,   -9.0,   -9.3,   -9.3,   -9.2,   -9.2,   -9.5,  999.0,  999.0,  999.0
2010/10/27 00:10,  999.0,    0.2,    0.8,  999.0,  999.0,  999.0,    3.6,    4.0,    4.5,    4.8,  999.0,  999.0,  999.0,  999.0,  999.0,  999.0,  999.0,  999.0,  999.0,    4.8,    4.5,    5.0,    5.4,  999.0,    4.2,    4.3,  999.0,  999.0,  999.0,  999.0,  999.0,  999.0,  999.0,  999.0,  999.0,  999.0,    0.7,    0.5,  999.0,  999.0,  999.0,  999.0,  999.0,  999.0,  999.0,  999.0,   -1.6,   -2.1,   -2.3,   -2.7,   -3.7,   -4.3,   -4.1,   -3.5,   -3.5,   -3.9,   -4.4,   -4.6,   -4.5,   -4.9,   -5.3,   -5.4,   -5.9,   -6.9,   -7.0,   -7.1,   -6.7,   -6.5,   -6.5,   -6.3,   -5.8,   -5.0,   -4.9,   -5.0,   -4.8,   -4.3,   -4.3,   -4.4,   -4.3,   -4.5,   -5.1,   -5.5,   -5.7,   -5.7,   -5.9,   -6.1,   -6.3,   -6.7,   -7.9,   -8.9,   -9.3,   -9.3,   -9.2,   -9.4,   -9.6,   -9.2,  999.0,  999.0
2010/10/27 00:20,  999.0,  999.0,    0.8,  999.0,  999.0,  999.0,    3.2,    3.9,    4.6,    5.2,  999.0,    5.7,    7.1,  999.0,    6.7,    6.5,  999.0,  999.0,  999.0,  999.0,  999.0,    5.5,  999.0,    6.3,  999.0,    4.3,  999.0,    4.8,  999.0,  999.0,  999.0,  999.0,  999.0,  999.0,  999.0,  999.0,    0.7,  999.0,  999.0,  999.0,   -0.9,  999.0,  999.0,  999.0,  999.0,  999.0,  999.0,   -2.8,   -2.8,   -3.2,   -4.2,  999.0,   -4.4,   -3.5,   -4.0,   -3.9,  999.0,  999.0,  999.0,  999.0,  999.0,  999.0,   -6.3,   -6.7,   -6.3,   -6.4,   -6.1,   -5.7,   -5.7,   -5.7,   -5.4,   -4.9,   -4.4,   -4.0,   -3.6,   -3.8,   -4.0,   -4.3,   -4.8,   -5.4,   -5.6,   -5.5,   -5.5,   -5.7,   -5.8,   -6.0,   -6.3,   -6.7,   -7.5,   -8.4,   -8.8,   -8.9,   -8.8,   -8.8,   -8.2,   -8.5,  999.0,  999.0
2010/10/27 00:30,  999.0,    0.5,  999.0,  999.0,  999.0,    2.7,    3.2,    4.1,    4.5,    4.6,    5.1,    6.3,  999.0,  999.0,    6.8,    6.4,  999.0,  999.0,  999.0,  999.0,    5.3,  999.0,  999.0,  999.0,  999.0,  999.0,  999.0,  999.0,  999.0,  999.0,  999.0,  999.0,  999.0,  999.0,  999.0,  999.0,  999.0,  999.0,  999.0,  999.0,  999.0,  999.0,  999.0,  999.0,  999.0,  999.0,  999.0,  999.0,  999.0,  999.0,  999.0,  999.0,  999.0,  999.0,  999.0,  999.0,  999.0,  999.0,  999.0,   -4.9,   -5.7,   -6.1,   -6.0,   -6.1,   -5.7,   -5.9,   -5.6,   -5.5,   -5.7,   -5.4,   -4.8,   -4.5,   -4.2,   -4.0,   -3.8,   -4.0,   -4.3,   -4.5,   -4.6,   -4.6,   -4.6,   -4.5,   -4.8,   -4.8,   -5.2,   -5.6,   -5.9,   -6.6,   -7.4,   -8.2,   -8.6,   -8.6,   -8.4,   -8.3,   -8.3,  999.0,  999.0,  999.0
2010/10/27 00:40,  999.0,  999.0,   -0.1,  999.0,  999.0,  999.0,  999.0,  999.0,  999.0,    5.1,  999.0,    5.8,  999.0,  999.0,    5.9,  999.0,    6.4,    5.1,  999.0,  999.0,  999.0,  999.0,  999.0,    5.3,  999.0,  999.0,    4.1,  999.0,  999.0,  999.0,  999.0,  999.0,  999.0,  999.0,  999.0,  999.0,  999.0,  999.0,  999.0,  999.0,  999.0,  999.0,  999.0,  999.0,  999.0,  999.0,  999.0,  999.0,  999.0,  999.0,  999.0,  999.0,  999.0,  999.0,  999.0,  999.0,   -4.2,   -4.8,   -5.0,   -5.8,   -6.0,   -5.7,   -5.5,   -5.6,   -5.8,   -5.6,   -5.6,   -5.7,   -5.2,   -4.4,   -4.5,   -4.5,   -4.1,   -3.7,   -3.5,   -3.7,   -3.9,   -4.1,   -4.2,   -4.4,   -4.7,   -4.7,   -4.6,   -4.8,   -5.3,   -5.8,   -6.2,   -6.9,   -7.8,   -7.9,   -7.9,   -7.7,   -7.9,   -8.5,   -8.7,   -8.7,   -9.0,   -9.4
2010/10/27 00:50,  999.0,   -0.6,  999.0,  999.0,    0.9,    2.9,    3.2,    3.8,    4.6,    5.0,    5.4,    5.8,  999.0,  999.0,  999.0,  999.0,    6.2,    5.7,    4.7,  999.0,    5.7,  999.0,    5.9,    5.3,  999.0,  999.0,  999.0,  999.0,  999.0,  999.0,  999.0,  999.0,  999.0,  999.0,  999.0,  999.0,  999.0,  999.0,  999.0,  999.0,  999.0,  999.0,  999.0,  999.0,  999.0,  999.0,  999.0,  999.0,  999.0,   -2.6,   -3.2,   -3.4,   -3.1,   -3.3,   -3.9,   -4.1,   -4.5,   -4.8,   -5.1,   -5.1,   -5.1,   -4.6,   -4.7,   -5.2,   -5.8,   -6.0,   -6.6,   -6.6,   -5.8,   -5.1,   -4.7,   -4.6,   -4.3,   -4.0,   -3.7,   -3.6,   -3.7,   -3.7,   -3.8,   -3.8,   -3.7,   -3.3,   -3.3,   -3.8,   -4.4,   -4.8,   -5.6,   -6.4,   -7.1,   -7.5,   -7.5,   -7.6,   -7.6,   -7.7,   -8.0,   -8.4,  999.0,  999.0
2010/10/27 01:00,  999.0,   -0.6,   -0.4,  999.0,    1.8,    3.0,    3.4,    4.2,    4.3,    5.0,    5.3,  999.0,  999.0,  999.0,  999.0,  999.0,  999.0,  999.0,  999.0,    4.7,    5.2,    6.1,    5.7,    5.8,    4.7,    4.0,  999.0,  999.0,  999.0,  999.0,  999.0,  999.0,  999.0,  999.0,  999.0,  999.0,  999.0,  999.0,  999.0,  999.0,  999.0,  999.0,  999.0,  999.0,  999.0,  999.0,  999.0,  999.0,  999.0,  999.0,  999.0,  999.0,  999.0,  999.0,  999.0,  999.0,  999.0,  999.0,  999.0,  999.0,  999.0,   -4.5,   -4.9,   -5.4,   -5.9,   -6.5,   -6.9,   -6.9,   -6.6,   -6.0,   -5.2,   -4.6,   -4.5,   -4.2,   -3.7,   -3.4,   -3.5,   -3.7,   -3.5,   -3.3,   -3.1,   -2.9,   -3.1,   -3.6,   -3.9,   -4.5,   -5.6,   -6.5,   -7.1,   -7.7,   -7.8,   -7.7,   -7.8,   -7.7,  999.0,   -7.8,  999.0,  999.0
2010/10/27 01:10,   -0.9,   -0.7,   -0.0,    0.1,    2.3,    3.0,  999.0,    4.6,    5.0,    5.4,    5.6,    6.2,  999.0,  999.0,  999.0,  999.0,  999.0,  999.0,    4.6,  999.0,    4.7,    5.4,    5.2,  999.0,  999.0,  999.0,    4.3,  999.0,  999.0,  999.0,  999.0,  999.0,  999.0,  999.0,  999.0,  999.0,  999.0,  999.0,  999.0,  999.0,  999.0,  999.0,  999.0,  999.0,  999.0,  999.0,   -1.9,  999.0,  999.0,  999.0,  999.0,  999.0,  999.0,  999.0,  999.0,  999.0,  999.0,  999.0,  999.0,  999.0,   -5.2,   -5.0,   -5.1,   -5.5,   -5.9,   -6.6,   -7.1,   -7.5,   -7.9,   -6.7,   -4.9,   -4.3,   -4.2,   -3.8,   -3.4,   -3.3,   -3.2,   -3.0,   -2.8,   -2.9,   -2.9,   -3.0,   -3.0,   -2.9,   -3.1,   -3.8,   -4.6,   -5.8,   -6.7,   -7.1,   -7.2,   -6.9,   -6.7,   -6.4,   -6.8,   -7.5,   -7.8,  999.0
2010/10/27 01:20,  999.0,   -0.5,  999.0,  999.0,    2.4,    3.2,    4.0,    4.4,    4.9,    5.3,    5.4,    6.1,  999.0,  999.0,    6.6,    6.6,    6.2,    4.4,    4.2,    4.1,  999.0,  999.0,  999.0,  999.0,  999.0,  999.0,  999.0,  999.0,  999.0,  999.0,  999.0,  999.0,  999.0,  999.0,  999.0,  999.0,  999.0,  999.0,  999.0,  999.0,  999.0,  999.0,  999.0,  999.0,  999.0,  999.0,  999.0,  999.0,  999.0,  999.0,  999.0,  999.0,  999.0,  999.0,  999.0,  999.0,  999.0,   -4.9,   -5.0,   -4.6,   -4.6,   -4.7,   -5.3,   -6.0,   -6.6,   -6.9,   -7.4,   -7.9,   -7.3,   -5.4,   -4.4,   -4.3,   -4.1,   -3.9,   -3.8,   -3.5,   -3.2,   -3.0,   -2.9,   -3.1,   -3.2,   -3.0,   -2.5,   -2.2,   -2.4,   -2.9,   -4.3,   -5.8,   -6.6,   -7.0,   -6.9,   -6.7,   -7.0,  999.0,   -6.6,  999.0,  999.0,  999.0
2010/10/27 01:30,   -0.8,  999.0,  999.0,    1.9,    2.8,    3.4,    4.0,    4.5,    4.7,    5.1,    5.3,    6.0,  999.0,  999.0,    6.3,    6.4,  999.0,  999.0,  999.0,    4.4,    4.6,    4.8,  999.0,  999.0,  999.0,  999.0,    4.7,  999.0,  999.0,  999.0,  999.0,  999.0,  999.0,  999.0,  999.0,  999.0,   -0.6,  999.0,  999.0,  999.0,  999.0,  999.0,  999.0,  999.0,  999.0,  999.0,  999.0,  999.0,  999.0,  999.0,  999.0,  999.0,   -3.5,   -3.2,  999.0,   -3.5,   -4.4,   -4.4,   -4.4,   -4.6,   -4.8,   -5.3,   -6.0,   -6.5,   -6.9,   -7.3,   -7.9,   -7.1,   -5.3,   -4.9,   -4.9,   -4.8,   -4.7,   -4.9,   -4.4,   -3.6,   -3.3,   -3.2,   -3.5,   -3.5,   -3.3,   -2.8,   -2.5,   -2.5,   -2.9,   -3.7,   -4.6,   -5.7,   -6.1,   -6.6,  999.0,  999.0,  999.0,  999.0,  999.0,  999.0,  999.0,  999.0
2010/10/27 01:40,   -0.3,   -0.3,   -0.1,    1.7,    2.6,    3.6,    3.7,    4.2,    4.5,    4.9,    5.6,  999.0,  999.0,  999.0,  999.0,    5.8,    5.9,  999.0,    2.9,    4.0,  999.0,    3.9,  999.0,  999.0,    5.1,  999.0,  999.0,  999.0,  999.0,  999.0,  999.0,  999.0,  999.0,  999.0,  999.0,  999.0,   -0.5,  999.0,  999.0,  999.0,  999.0,  999.0,  999.0,  999.0,  999.0,  999.0,   -2.7,  999.0,  999.0,  999.0,  999.0,  999.0,  999.0,  999.0,  999.0,   -4.4,   -4.7,   -4.6,   -4.7,   -5.1,   -5.2,   -5.5,   -6.0,   -6.5,   -6.7,   -7.0,   -7.2,   -6.4,   -5.4,   -5.1,   -5.0,   -5.2,   -4.9,   -4.5,   -3.9,   -3.3,   -3.1,   -3.3,   -3.0,   -2.8,   -2.6,   -2.2,   -2.3,   -2.5,   -3.1,   -3.7,   -4.3,   -4.5,   -5.3,  999.0,  999.0,  999.0,  999.0,  999.0,  999.0,  999.0,  999.0,  999.0
2010/10/27 01:50,   -0.1,   -0.6,   -0.4,  999.0,    2.5,    3.1,    3.3,    3.8,    4.3,    4.9,    5.2,  999.0,    6.4,    5.6,    5.8,    5.4,    5.4,  999.0,  999.0,  999.0,  999.0,  999.0,    4.8,    4.9,    4.7,  999.0,    4.3,    4.4,  999.0,  999.0,  999.0,  999.0,  999.0,  999.0,  999.0,  999.0,  999.0,  999.0,  999.0,  999.0,  999.0,  999.0,  999.0,  999.0,  999.0,  999.0,  999.0,  999.0,  999.0,  999.0,  999.0,  999.0,  999.0,  999.0,   -4.5,   -4.5,   -4.5,   -4.6,   -4.9,   -5.1,   -5.4,   -5.9,   -6.3,   -6.3,   -6.7,   -7.3,   -7.3,   -6.4,   -5.3,   -5.2,   -5.3,   -5.1,   -4.9,   -4.1,   -3.4,   -3.5,   -3.6,   -3.3,   -3.1,   -2.6,   -2.4,   -2.7,   -2.8,   -3.2,   -3.2,   -3.5,   -4.1,  999.0,  999.0,  999.0,  999.0,  999.0,  999.0,  999.0,  999.0,  999.0,  999.0,  999.0
2010/10/27 02:00,   -0.4,   -0.9,  999.0,    1.0,    2.6,    2.9,    3.1,  999.0,    4.3,    5.1,    5.3,  999.0,    6.1,    6.2,    6.4,    5.7,    5.6,  999.0,  999.0,  999.0,  999.0,  999.0,    5.2,  999.0,  999.0,    4.6,    4.0,  999.0,  999.0,  999.0,  999.0,  999.0,  999.0,  999.0,    1.1,  999.0,  999.0,  999.0,  999.0,  999.0,  999.0,   -1.5,  999.0,  999.0,  999.0,   -2.1,  999.0,  999.0,  999.0,  999.0,  999.0,  999.0,  999.0,  999.0,  999.0,  999.0,   -4.5,   -4.6,   -5.2,   -5.6,   -6.0,   -6.2,   -6.3,   -6.5,   -7.0,   -7.4,   -7.0,   -5.9,   -5.3,   -5.2,   -5.3,   -5.1,   -4.8,   -4.5,   -3.9,   -3.8,   -3.3,   -3.3,   -2.9,   -2.5,   -3.0,  999.0,  999.0,  999.0,  999.0,  999.0,  999.0,  999.0,  999.0,  999.0,  999.0,  999.0,  999.0,  999.0,  999.0,  999.0,  999.0,  999.0
2010/10/27 02:10,  999.0,   -1.2,   -0.6,  999.0,    2.2,    3.0,    3.3,    3.8,    4.4,    5.0,  999.0,    5.5,    5.8,    6.2,    6.4,  999.0,  999.0,  999.0,  999.0,  999.0,    4.3,  999.0,  999.0,  999.0,    4.9,    4.3,    4.4,    4.7,  999.0,  999.0,  999.0,  999.0,  999.0,  999.0,  999.0,  999.0,  999.0,  999.0,  999.0,  999.0,   -1.5,   -1.4,  999.0,  999.0,   -1.1,   -2.5,  999.0,  999.0,  999.0,  999.0,  999.0,  999.0,  999.0,  999.0,  999.0,  999.0,  999.0,  999.0,   -6.1,   -6.2,   -6.2,   -6.0,   -6.1,   -6.1,   -6.1,   -6.3,   -5.9,   -5.7,   -5.5,   -5.3,   -5.0,   -4.4,   -4.6,   -4.4,   -4.0,   -3.0,  999.0,  999.0,  999.0,  999.0,  999.0,  999.0,  999.0,  999.0,  999.0,  999.0,  999.0,  999.0,  999.0,  999.0,  999.0,  999.0,  999.0,  999.0,  999.0,  999.0,  999.0,  999.0
2010/10/27 02:20,   -0.6,  999.0,  999.0,  999.0,    2.6,    3.0,    3.0,    3.8,    4.5,  999.0,  999.0,  999.0,    6.1,    6.4,  999.0,  999.0,  999.0,  999.0,  999.0,  999.0,  999.0,  999.0,  999.0,  999.0,    4.7,    4.4,    4.2,  999.0,  999.0,  999.0,  999.0,  999.0,  999.0,  999.0,  999.0,  999.0,  999.0,  999.0,  999.0,  999.0,  999.0,  999.0,  999.0,  999.0,   -2.1,   -2.5,   -2.7,  999.0,  999.0,  999.0,  999.0,  999.0,  999.0,  999.0,  999.0,  999.0,  999.0,  999.0,  999.0,  999.0,  999.0,  999.0,  999.0,  999.0,  999.0,   -5.7,  999.0,   -5.4,   -5.6,   -5.6,   -5.0,   -4.3,   -4.3,   -4.4,   -4.1,  999.0,  999.0,  999.0,  999.0,  999.0,  999.0,  999.0,  999.0,  999.0,  999.0,  999.0,  999.0,  999.0,  999.0,  999.0,  999.0,  999.0,  999.0,  999.0,  999.0,  999.0,  999.0,  999.0
2010/10/27 02:30,   -0.5,  999.0,  999.0,    1.4,    2.7,    2.8,    2.9,  999.0,    4.5,  999.0,    5.3,  999.0,  999.0,    5.6,  999.0,  999.0,    5.3,    5.1,  999.0,  999.0,  999.0,  999.0,  999.0,  999.0,    4.4,    4.4,    4.2,    4.3,  999.0,  999.0,  999.0,  999.0,  999.0,  999.0,  999.0,  999.0,  999.0,  999.0,  999.0,  999.0,  999.0,  999.0,  999.0,  999.0,   -2.0,  999.0,  999.0,  999.0,  999.0,  999.0,  999.0,  999.0,  999.0,  999.0,  999.0,  999.0,  999.0,  999.0,  999.0,  999.0,  999.0,  999.0,  999.0,  999.0,  999.0,  999.0,   -4.8,   -4.7,  999.0,   -4.3,   -3.9,  999.0,  999.0,  999.0,   -3.4,  999.0,  999.0,  999.0,  999.0,  999.0,  999.0,  999.0,  999.0,  999.0,  999.0,  999.0,  999.0,  999.0,  999.0,  999.0,  999.0,  999.0,  999.0,  999.0,  999.0,  999.0,  999.0,  999.0
2010/10/27 02:40,  999.0,  999.0,  999.0,  999.0,  999.0,  999.0,  999.0,  999.0,  999.0,  999.0,  999.0,  999.0,  999.0,  999.0,  999.0,  999.0,  999.0,  999.0,  999.0,  999.0,  999.0,  999.0,  999.0,  999.0,  999.0,  999.0,  999.0,  999.0,  999.0,  999.0,  999.0,  999.0,  999.0,  999.0,  999.0,  999.0,  999.0,  999.0,  999.0,  999.0,  999.0,  999.0,  999.0,  999.0,  999.0,  999.0,  999.0,  999.0,  999.0,  999.0,  999.0,  999.0,  999.0,  999.0,  999.0,  999.0,  999.0,  999.0,  999.0,  999.0,  999.0,  999.0,  999.0,  999.0,  999.0,  999.0,  999.0,  999.0,  999.0,  999.0,  999.0,  999.0,  999.0,  999.0,  999.0,  999.0,  999.0,  999.0,  999.0,  999.0,  999.0,  999.0,  999.0,  999.0,  999.0,  999.0,  999.0,  999.0,  999.0,  999.0,  999.0,  999.0,  999.0,  999.0,  999.0,  999.0,  999.0,  999.0
2010/10/27 02:50,   -0.5,  999.0,  999.0,    2.0,    3.1,    3.4,  999.0,    4.0,  999.0,  999.0,  999.0,    5.6,    5.6,    5.8,  999.0,    6.5,  999.0,  999.0,  999.0,  999.0,    5.6,  999.0,    5.3,    4.5,    4.4,  999.0,  999.0,  999.0,  999.0,  999.0,  999.0,  999.0,  999.0,  999.0,  999.0,  999.0,  999.0,  999.0,  999.0,  999.0,  999.0,  999.0,  999.0,  999.0,  999.0,  999.0,  999.0,  999.0,  999.0,  999.0,  999.0,  999.0,  999.0,  999.0,  999.0,  999.0,  999.0,  999.0,  999.0,  999.0,  999.0,  999.0,  999.0,  999.0,  999.0,  999.0,  999.0,  999.0,  999.0,  999.0,  999.0,  999.0,  999.0,  999.0,  999.0,  999.0,  999.0,  999.0,  999.0,  999.0,  999.0,  999.0,  999.0,  999.0,  999.0,  999.0,  999.0,  999.0,  999.0,  999.0,  999.0,  999.0,  999.0,  999.0,  999.0,  999.0,  999.0,  999.0
2010/10/27 03:00,  999.0,  999.0,  999.0,  999.0,  999.0,  999.0,  999.0,  999.0,  999.0,  999.0,  999.0,  999.0,  999.0,  999.0,  999.0,  999.0,  999.0,  999.0,  999.0,  999.0,  999.0,  999.0,  999.0,  999.0,  999.0,  999.0,  999.0,  999.0,  999.0,  999.0,  999.0,  999.0,  999.0,  999.0,  999.0,  999.0,  999.0,  999.0,  999.0,  999.0,  999.0,  999.0,  999.0,  999.0,  999.0,  999.0,  999.0,  999.0,  999.0,  999.0,  999.0,  999.0,  999.0,  999.0,  999.0,  999.0,  999.0,  999.0,  999.0,  999.0,  999.0,  999.0,  999.0,  999.0,  999.0,  999.0,  999.0,  999.0,  999.0,  999.0,  999.0,  999.0,  999.0,  999.0,  999.0,  999.0,  999.0,  999.0,  999.0,  999.0,  999.0,  999.0,  999.0,  999.0,  999.0,  999.0,  999.0,  999.0,  999.0,  999.0,  999.0,  999.0,  999.0,  999.0,  999.0,  999.0,  999.0,  999.0
2010/10/27 03:10,   -0.4,   -0.3,   -0.1,    2.2,    3.1,    3.1,  999.0,    4.1,    5.2,    5.1,    5.4,    5.4,    4.8,    4.4,    5.9,    6.2,  999.0,  999.0,    4.4,    5.2,  999.0,    4.6,    4.3,    4.7,    5.6,  999.0,  999.0,  999.0,  999.0,  999.0,  999.0,  999.0,  999.0,  999.0,  999.0,   -1.3,   -2.0,  999.0,  999.0,  999.0,  999.0,  999.0,  999.0,  999.0,  999.0,  999.0,   -2.1,  999.0,  999.0,  999.0,  999.0,  999.0,  999.0,  999.0,  999.0,  999.0,  999.0,  999.0,  999.0,  999.0,  999.0,  999.0,  999.0,  999.0,  999.0,  999.0,  999.0,  999.0,  999.0,  999.0,  999.0,  999.0,  999.0,  999.0,  999.0,  999.0,  999.0,  999.0,  999.0,  999.0,  999.0,  999.0,  999.0,  999.0,  999.0,  999.0,  999.0,  999.0,  999.0,   -1.3,   -0.9,   -0.5,   -0.6,   -0.8,   -1.1,   -1.8,   -2.9,  999.0
2010/10/27 03:20,   -0.4,  999.0,  999.0,    2.3,    3.0,    3.5,  999.0,    4.4,    5.3,    5.7,    5.4,    4.6,    4.6,    5.0,  999.0,  999.0,  999.0,    6.3,    5.1,  999.0,  999.0,    4.8,  999.0,  999.0,  999.0,  999.0,  999.0,  999.0,  999.0,  999.0,  999.0,  999.0,  999.0,  999.0,  999.0,   -1.4,   -2.6,  999.0,  999.0,  999.0,  999.0,  999.0,  999.0,  999.0,  999.0,  999.0,   -1.7,  999.0,  999.0,  999.0,  999.0,  999.0,  999.0,  999.0,  999.0,  999.0,  999.0,  999.0,  999.0,  999.0,  999.0,  999.0,  999.0,  999.0,  999.0,  999.0,  999.0,  999.0,  999.0,  999.0,  999.0,  999.0,  999.0,  999.0,  999.0,  999.0,  999.0,  999.0,  999.0,  999.0,  999.0,  999.0,  999.0,  999.0,  999.0,  999.0,  999.0,  999.0,  999.0,  999.0,  999.0,  999.0,  999.0,  999.0,  999.0,  999.0,  999.0,  999.0
2010/10/27 03:30,  999.0,  999.0,  999.0,    2.8,    3.7,    3.6,    4.6,    4.8,    5.5,    5.6,    5.5,    4.9,    4.6,    5.2,  999.0,  999.0,  999.0,    5.7,    5.5,  999.0,    4.5,  999.0,  999.0,  999.0,  999.0,  999.0,  999.0,    4.9,    5.2,  999.0,  999.0,  999.0,  999.0,  999.0,  999.0,  999.0,  999.0,  999.0,  999.0,  999.0,  999.0,  999.0,  999.0,  999.0,  999.0,  999.0,  999.0,  999.0,  999.0,  999.0,  999.0,  999.0,  999.0,  999.0,  999.0,  999.0,  999.0,  999.0,  999.0,  999.0,  999.0,  999.0,  999.0,  999.0,  999.0,  999.0,  999.0,  999.0,  999.0,  999.0,  999.0,  999.0,  999.0,  999.0,  999.0,  999.0,  999.0,  999.0,  999.0,  999.0,  999.0,  999.0,  999.0,  999.0,  999.0,  999.0,  999.0,  999.0,  999.0,  999.0,  999.0,  999.0,  999.0,  999.0,  999.0,  999.0,  999.0,  999.0
2010/10/27 03:40,  999.0,  999.0,    2.6,    3.5,    4.2,  999.0,  999.0,    5.4,  999.0,  999.0,    4.9,    4.6,    4.9,    5.3,  999.0,  999.0,  999.0,  999.0,  999.0,  999.0,    5.1,    4.4,  999.0,  999.0,    4.1,  999.0,  999.0,  999.0,  999.0,  999.0,  999.0,  999.0,  999.0,  999.0,  999.0,  999.0,  999.0,  999.0,  999.0,  999.0,  999.0,  999.0,  999.0,  999.0,  999.0,  999.0,  999.0,  999.0,  999.0,  999.0,  999.0,  999.0,  999.0,  999.0,  999.0,  999.0,  999.0,  999.0,  999.0,  999.0,  999.0,  999.0,  999.0,  999.0,  999.0,  999.0,  999.0,  999.0,  999.0,  999.0,  999.0,  999.0,  999.0,  999.0,  999.0,  999.0,  999.0,  999.0,  999.0,  999.0,  999.0,  999.0,  999.0,  999.0,  999.0,  999.0,  999.0,  999.0,  999.0,  999.0,  999.0,  999.0,  999.0,  999.0,  999.0,  999.0,  999.0,  999.0
2010/10/27 03:50,  999.0,  999.0,    3.0,  999.0,    4.3,  999.0,    5.0,  999.0,  999.0,  999.0,    4.6,    4.7,    5.2,    5.9,    6.5,  999.0,  999.0,  999.0,    5.9,  999.0,    4.6,  999.0,  999.0,  999.0,    4.0,  999.0,  999.0,  999.0,  999.0,  999.0,  999.0,  999.0,  999.0,  999.0,  999.0,  999.0,  999.0,  999.0,  999.0,  999.0,  999.0,  999.0,  999.0,  999.0,  999.0,  999.0,  999.0,  999.0,  999.0,  999.0,  999.0,  999.0,  999.0,  999.0,  999.0,  999.0,  999.0,  999.0,  999.0,  999.0,  999.0,  999.0,  999.0,  999.0,  999.0,  999.0,  999.0,  999.0,  999.0,  999.0,  999.0,  999.0,  999.0,  999.0,  999.0,  999.0,  999.0,  999.0,  999.0,  999.0,  999.0,  999.0,  999.0,  999.0,  999.0,  999.0,  999.0,  999.0,  999.0,  999.0,  999.0,  999.0,  999.0,  999.0,  999.0,  999.0,  999.0,  999.0
2010/10/27 04:00,  999.0,  999.0,    3.2,    4.2,  999.0,  999.0,    5.3,  999.0,  999.0,    6.2,  999.0,    5.7,    5.1,  999.0,    5.6,    5.9,  999.0,  999.0,    5.5,    5.3,    4.0,  999.0,  999.0,    3.8,  999.0,    3.7,  999.0,    3.5,    4.2,  999.0,  999.0,  999.0,  999.0,  999.0,  999.0,   -2.5,  999.0,  999.0,  999.0,  999.0,   -3.3,   -2.9,  999.0,  999.0,  999.0,  999.0,  999.0,  999.0,  999.0,  999.0,  999.0,  999.0,  999.0,  999.0,  999.0,  999.0,  999.0,  999.0,  999.0,  999.0,  999.0,  999.0,  999.0,  999.0,  999.0,  999.0,   -1.8,   -2.5,   -2.6,   -2.6,   -2.7,   -2.9,  999.0,  999.0,  999.0,  999.0,  999.0,  999.0,  999.0,  999.0,  999.0,  999.0,  999.0,  999.0,  999.0,  999.0,  999.0,  999.0,  999.0,  999.0,  999.0,  999.0,   -0.2,    0.2,   -0.2,   -0.8,   -1.8,   -2.8
2010/10/27 04:10,  999.0,  999.0,  999.0,  999.0,  999.0,  999.0,  999.0,  999.0,  999.0,  999.0,    5.7,  999.0,    5.2,    5.3,    5.9,    6.3,    6.7,    6.3,    5.7,    5.4,    4.3,    3.8,  999.0,  999.0,    4.2,  999.0,  999.0,    3.3,  999.0,  999.0,  999.0,  999.0,  999.0,  999.0,  999.0,  999.0,  999.0,  999.0,  999.0,  999.0,   -3.1,  999.0,  999.0,  999.0,  999.0,  999.0,  999.0,  999.0,  999.0,  999.0,  999.0,  999.0,  999.0,  999.0,  999.0,  999.0,  999.0,  999.0,  999.0,  999.0,  999.0,   -6.0,  999.0,   -4.2,   -4.3,   -3.8,   -2.4,   -2.3,   -2.2,   -2.4,  999.0,  999.0,  999.0,  999.0,  999.0,  999.0,  999.0,  999.0,  999.0,  999.0,  999.0,  999.0,  999.0,  999.0,  999.0,  999.0,   -0.4,   -0.5,   -0.4,   -0.8,   -1.3,   -1.7,   -1.4,   -0.9,   -1.1,   -1.7,   -2.3,   -3.8
2010/10/27 04:20,  999.0,  999.0,  999.0,    3.9,    4.7,    5.5,    5.5,    5.0,    5.5,    5.7,    5.8,    5.9,    5.7,    5.5,    5.5,    5.8,    6.0,    6.0,    6.3,    5.4,    4.3,    3.7,    4.2,  999.0,    3.8,  999.0,  999.0,    3.7,  999.0,  999.0,  999.0,  999.0,  999.0,  999.0,   -2.3,   -2.9,  999.0,  999.0,  999.0,  999.0,  999.0,  999.0,  999.0,  999.0,  999.0,  999.0,  999.0,  999.0,  999.0,  999.0,  999.0,  999.0,  999.0,  999.0,  999.0,  999.0,  999.0,  999.0,  999.0,   -6.2,   -6.7,   -7.0,  999.0,   -4.5,   -4.0,   -3.8,  999.0,  999.0,  999.0,  999.0,  999.0,  999.0,  999.0,  999.0,  999.0,  999.0,  999.0,  999.0,  999.0,  999.0,  999.0,  999.0,  999.0,  999.0,  999.0,    1.1,    0.7,    0.4,    0.0,   -0.2,   -0.7,   -0.6,   -0.2,   -0.5,   -0.8,   -1.4,   -2.3,   -3.0
2010/10/27 04:30,  999.0,  999.0,  999.0,  999.0,  999.0,    4.9,    5.1,    5.5,    5.8,    6.0,    5.9,    5.5,    5.6,    5.8,    6.3,    6.6,    6.4,    6.3,    6.5,    6.6,    6.1,    4.5,    4.8,  999.0,    4.5,  999.0,  999.0,  999.0,  999.0,  999.0,  999.0,  999.0,  999.0,  999.0,   -2.0,  999.0,  999.0,  999.0,  999.0,  999.0,  999.0,  999.0,  999.0,  999.0,  999.0,  999.0,  999.0,  999.0,  999.0,  999.0,  999.0,  999.0,  999.0,  999.0,  999.0,  999.0,  999.0,  999.0,  999.0,  999.0,  999.0,  999.0,  999.0,  999.0,  999.0,  999.0,  999.0,  999.0,  999.0,  999.0,  999.0,  999.0,  999.0,  999.0,  999.0,  999.0,  999.0,  999.0,  999.0,  999.0,  999.0,  999.0,  999.0,  999.0,    2.3,  999.0,    1.6,    0.8,    0.3,   -0.3,   -0.9,   -0.8,   -0.5,   -0.4,   -1.0,   -1.8,   -2.0,  999.0
2010/10/27 04:40,  999.0,  999.0,  999.0,  999.0,  999.0,  999.0,  999.0,  999.0,    6.3,    6.8,    5.9,    5.6,    5.1,    5.8,    6.0,    6.7,    6.8,    6.7,    6.3,    6.0,    5.6,    4.3,  999.0,  999.0,    4.6,  999.0,  999.0,  999.0,  999.0,  999.0,    2.2,  999.0,  999.0,  999.0,  999.0,  999.0,  999.0,  999.0,  999.0,  999.0,  999.0,  999.0,  999.0,  999.0,  999.0,  999.0,  999.0,  999.0,  999.0,  999.0,  999.0,  999.0,  999.0,  999.0,  999.0,  999.0,  999.0,  999.0,  999.0,  999.0,  999.0,  999.0,  999.0,  999.0,  999.0,  999.0,  999.0,  999.0,  999.0,  999.0,  999.0,  999.0,  999.0,  999.0,  999.0,  999.0,  999.0,  999.0,  999.0,  999.0,  999.0,  999.0,  999.0,  999.0,  999.0,  999.0,  999.0,    0.6,    0.1,   -0.6,   -0.6,   -0.4,   -0.3,  999.0,  999.0,  999.0,  999.0,  999.0
2010/10/27 04:50,  999.0,  999.0,  999.0,  999.0,  999.0,  999.0,  999.0,    6.3,    6.9,    6.4,    6.3,    5.5,    5.3,    5.4,    5.6,    6.8,    7.2,    6.9,    7.0,    6.0,    6.3,    5.2,  999.0,  999.0,    4.4,  999.0,    4.2,  999.0,    3.3,  999.0,    2.2,  999.0,  999.0,   -1.7,   -2.5,   -3.2,  999.0,  999.0,  999.0,  999.0,  999.0,  999.0,  999.0,  999.0,  999.0,  999.0,  999.0,  999.0,  999.0,  999.0,  999.0,  999.0,  999.0,  999.0,  999.0,  999.0,  999.0,  999.0,  999.0,  999.0,  999.0,  999.0,  999.0,  999.0,  999.0,  999.0,  999.0,  999.0,  999.0,  999.0,  999.0,  999.0,  999.0,  999.0,  999.0,  999.0,  999.0,  999.0,  999.0,  999.0,  999.0,  999.0,  999.0,  999.0,  999.0,  999.0,  999.0,  999.0,  999.0,  999.0,  999.0,  999.0,  999.0,  999.0,  999.0,  999.0,  999.0,  999.0
2010/10/27 05:00,  999.0,  999.0,  999.0,  999.0,  999.0,  999.0,  999.0,  999.0,  999.0,    7.6,    7.2,    6.2,    5.4,    5.5,    6.1,    7.2,    7.1,    6.2,    6.3,    5.8,    5.6,    5.3,    4.6,  999.0,    3.5,  999.0,  999.0,  999.0,    3.2,  999.0,  999.0,  999.0,  999.0,   -2.0,   -2.9,   -3.7,  999.0,  999.0,  999.0,  999.0,  999.0,  999.0,  999.0,  999.0,  999.0,  999.0,  999.0,  999.0,  999.0,  999.0,  999.0,  999.0,  999.0,  999.0,  999.0,  999.0,  999.0,  999.0,  999.0,  999.0,  999.0,  999.0,  999.0,  999.0,  999.0,  999.0,  999.0,  999.0,  999.0,  999.0,  999.0,  999.0,  999.0,  999.0,  999.0,  999.0,  999.0,  999.0,  999.0,  999.0,  999.0,  999.0,  999.0,  999.0,  999.0,  999.0,  999.0,  999.0,  999.0,  999.0,  999.0,  999.0,  999.0,  999.0,  999.0,  999.0,  999.0,  999.0
2010/10/27 05:10,  999.0,  999.0,  999.0,  999.0,  999.0,  999.0,    6.5,    7.6,  999.0,  999.0,    6.7,    5.7,    5.8,    5.8,    6.5,    6.9,    6.7,    6.4,    6.0,    4.8,    5.4,  999.0,  999.0,  999.0,    3.7,    4.2,  999.0,    3.6,  999.0,  999.0,  999.0,  999.0,  999.0,   -1.2,   -1.6,   -2.6,  999.0,  999.0,  999.0,  999.0,  999.0,  999.0,  999.0,  999.0,  999.0,  999.0,  999.0,  999.0,  999.0,  999.0,  999.0,  999.0,  999.0,  999.0,  999.0,  999.0,  999.0,  999.0,  999.0,  999.0,  999.0,  999.0,  999.0,  999.0,  999.0,  999.0,  999.0,  999.0,  999.0,  999.0,  999.0,  999.0,  999.0,  999.0,  999.0,  999.0,  999.0,  999.0,  999.0,  999.0,  999.0,  999.0,  999.0,  999.0,  999.0,  999.0,  999.0,  999.0,  999.0,  999.0,  999.0,  999.0,  999.0,  999.0,  999.0,  999.0,  999.0,  999.0
2010/10/27 05:20,  999.0,  999.0,  999.0,  999.0,  999.0,    6.8,    6.6,    7.5,    8.2,    7.2,    6.4,    6.4,    6.1,    6.2,    6.3,    6.3,    5.9,    5.6,    5.0,    5.0,    5.7,    4.7,    4.3,  999.0,    3.8,  999.0,    4.1,    3.6,    3.7,  999.0,  999.0,  999.0,  999.0,   -0.7,   -1.4,  999.0,  999.0,  999.0,  999.0,  999.0,  999.0,  999.0,  999.0,  999.0,  999.0,  999.0,  999.0,  999.0,  999.0,  999.0,  999.0,  999.0,  999.0,  999.0,  999.0,  999.0,  999.0,  999.0,  999.0,  999.0,  999.0,  999.0,  999.0,  999.0,  999.0,  999.0,  999.0,  999.0,  999.0,  999.0,  999.0,  999.0,  999.0,  999.0,  999.0,  999.0,  999.0,  999.0,  999.0,  999.0,  999.0,  999.0,  999.0,  999.0,  999.0,  999.0,  999.0,  999.0,  999.0,  999.0,  999.0,  999.0,  999.0,  999.0,  999.0,  999.0,  999.0,  999.0
2010/10/27 05:30,  999.0,  999.0,  999.0,    9.4,  999.0,    6.6,    6.3,    8.0,    7.8,    7.1,  999.0,    5.9,    6.3,    6.7,    6.4,    6.4,    6.5,    6.1,    5.9,    5.3,    5.6,    5.6,    3.8,    4.2,  999.0,  999.0,    3.5,  999.0,    3.5,  999.0,  999.0,  999.0,  999.0,   -1.3,   -1.8,   -2.6,  999.0,  999.0,  999.0,   -3.1,  999.0,  999.0,  999.0,  999.0,  999.0,  999.0,  999.0,  999.0,  999.0,  999.0,  999.0,  999.0,  999.0,  999.0,  999.0,  999.0,  999.0,  999.0,  999.0,  999.0,  999.0,  999.0,  999.0,  999.0,  999.0,  999.0,  999.0,  999.0,  999.0,  999.0,  999.0,  999.0,  999.0,  999.0,  999.0,  999.0,  999.0,  999.0,  999.0,  999.0,  999.0,  999.0,  999.0,  999.0,  999.0,  999.0,  999.0,  999.0,  999.0,  999.0,  999.0,  999.0,  999.0,  999.0,  999.0,  999.0,  999.0,  999.0
2010/10/27 05:40,  999.0,  999.0,  999.0,  999.0,  999.0,    6.1,    6.6,    6.7,    6.2,    6.1,    5.9,    5.7,    6.0,    6.2,    7.0,  999.0,    6.0,    6.7,    6.6,    6.3,    5.7,    5.2,    4.0,    3.9,    4.3,    4.8,    3.9,    3.7,    3.8,    3.7,  999.0,  999.0,  999.0,  999.0,   -1.3,   -2.1,  999.0,  999.0,  999.0,  999.0,  999.0,   -3.2,  999.0,  999.0,  999.0,  999.0,  999.0,  999.0,  999.0,  999.0,  999.0,  999.0,   -6.4,   -6.4,  999.0,  999.0,  999.0,  999.0,  999.0,  999.0,  999.0,  999.0,  999.0,  999.0,  999.0,  999.0,  999.0,  999.0,  999.0,  999.0,  999.0,  999.0,  999.0,  999.0,  999.0,  999.0,  999.0,  999.0,  999.0,  999.0,  999.0,  999.0,  999.0,  999.0,  999.0,  999.0,  999.0,  999.0,  999.0,  999.0,  999.0,  999.0,  999.0,  999.0,  999.0,  999.0,  999.0,  999.0
2010/10/27 05:50,  999.0,  999.0,  999.0,    5.9,    6.5,    6.6,    6.5,    6.7,    7.0,    6.5,    5.8,    6.8,    6.5,  999.0,  999.0,  999.0,    6.4,    7.0,    6.5,    5.5,    5.0,    4.9,    3.4,    3.3,    4.1,    4.2,    4.4,    3.5,    3.4,    3.1,  999.0,    1.2,  999.0,  999.0,   -2.4,   -3.2,  999.0,  999.0,   -3.6,   -4.1,   -4.3,   -4.2,  999.0,  999.0,  999.0,  999.0,  999.0,  999.0,  999.0,  999.0,  999.0,  999.0,  999.0,  999.0,  999.0,  999.0,  999.0,  999.0,  999.0,  999.0,  999.0,  999.0,  999.0,  999.0,  999.0,  999.0,  999.0,  999.0,  999.0,  999.0,  999.0,  999.0,  999.0,  999.0,  999.0,  999.0,  999.0,  999.0,  999.0,  999.0,  999.0,  999.0,  999.0,  999.0,  999.0,  999.0,  999.0,  999.0,  999.0,  999.0,  999.0,  999.0,  999.0,  999.0,  999.0,  999.0,  999.0,  999.0
2010/10/27 06:00,  999.0,  999.0,  999.0,  999.0,  999.0,    5.7,    6.0,    6.3,    6.5,    7.0,    5.9,    5.7,    6.6,    6.4,    6.9,    7.2,    6.6,    6.7,    5.8,    4.2,    4.0,    4.4,  999.0,    3.1,    3.4,    3.7,    3.4,    3.3,    2.8,  999.0,  999.0,  999.0,  999.0,   -1.2,   -2.6,  999.0,  999.0,   -3.0,   -3.9,   -3.7,   -4.4,  999.0,  999.0,  999.0,  999.0,  999.0,  999.0,  999.0,  999.0,  999.0,  999.0,   -4.8,  999.0,  999.0,  999.0,  999.0,  999.0,  999.0,  999.0,  999.0,  999.0,  999.0,  999.0,  999.0,  999.0,  999.0,  999.0,  999.0,  999.0,  999.0,  999.0,  999.0,  999.0,  999.0,  999.0,  999.0,  999.0,  999.0,  999.0,  999.0,  999.0,  999.0,  999.0,  999.0,  999.0,  999.0,  999.0,  999.0,  999.0,  999.0,  999.0,  999.0,  999.0,  999.0,  999.0,  999.0,  999.0,  999.0
2010/10/27 06:10,  999.0,  999.0,  999.0,  999.0,  999.0,    6.2,    5.7,    5.8,    5.7,    4.8,    5.1,    5.3,    6.1,    6.4,    6.1,    6.6,    6.4,    6.0,    5.3,    4.0,    3.8,    4.0,    2.7,    2.7,    3.0,    3.0,    2.9,    2.5,    2.2,  999.0,  999.0,  999.0,  999.0,   -2.6,   -2.8,  999.0,  999.0,   -3.7,   -3.6,   -4.3,   -3.7,  999.0,  999.0,  999.0,  999.0,  999.0,  999.0,  999.0,  999.0,  999.0,  999.0,  999.0,  999.0,  999.0,  999.0,  999.0,  999.0,  999.0,  999.0,  999.0,  999.0,  999.0,  999.0,  999.0,  999.0,  999.0,  999.0,  999.0,  999.0,  999.0,  999.0,  999.0,  999.0,  999.0,  999.0,  999.0,  999.0,  999.0,  999.0,  999.0,  999.0,  999.0,  999.0,  999.0,  999.0,  999.0,  999.0,  999.0,  999.0,  999.0,  999.0,  999.0,  999.0,  999.0,  999.0,  999.0,  999.0,  999.0
2010/10/27 06:20,  999.0,    4.0,    3.3,  999.0,    5.3,    5.2,    4.8,    4.7,    4.9,    4.8,    4.5,    4.0,    4.7,    4.5,    5.0,    5.4,    5.4,    5.1,    4.1,    3.9,    4.6,    3.1,    2.9,    3.3,    3.8,    3.5,    3.5,    3.5,    2.8,  999.0,  999.0,  999.0,  999.0,  999.0,   -2.4,  999.0,  999.0,  999.0,   -3.1,   -3.2,   -3.1,  999.0,  999.0,  999.0,  999.0,  999.0,  999.0,  999.0,  999.0,  999.0,  999.0,  999.0,  999.0,  999.0,  999.0,  999.0,  999.0,  999.0,  999.0,  999.0,  999.0,  999.0,  999.0,  999.0,  999.0,  999.0,  999.0,  999.0,  999.0,  999.0,  999.0,  999.0,  999.0,  999.0,  999.0,  999.0,  999.0,  999.0,  999.0,  999.0,  999.0,  999.0,  999.0,  999.0,  999.0,  999.0,  999.0,  999.0,  999.0,  999.0,  999.0,  999.0,  999.0,  999.0,  999.0,  999.0,  999.0,  999.0
2010/10/27 06:30,    2.6,    3.5,    3.3,    3.0,    3.9,    4.0,    4.4,    4.8,    4.9,    4.8,    4.5,    4.5,    4.2,    3.9,    4.2,    4.6,    4.4,    4.3,    4.2,    3.8,    4.1,    2.8,    2.6,    3.0,    3.4,    3.5,    3.0,    3.1,    2.5,  999.0,  999.0,  999.0,  999.0,   -2.0,   -2.6,  999.0,   -2.8,   -3.6,  999.0,   -2.8,  999.0,  999.0,  999.0,  999.0,  999.0,  999.0,  999.0,  999.0,  999.0,  999.0,  999.0,  999.0,  999.0,  999.0,  999.0,  999.0,  999.0,  999.0,  999.0,  999.0,  999.0,  999.0,  999.0,  999.0,  999.0,  999.0,  999.0,  999.0,  999.0,  999.0,  999.0,  999.0,  999.0,  999.0,  999.0,  999.0,  999.0,  999.0,  999.0,  999.0,  999.0,  999.0,  999.0,  999.0,  999.0,  999.0,  999.0,  999.0,  999.0,  999.0,  999.0,  999.0,  999.0,  999.0,  999.0,  999.0,  999.0,  999.0
2010/10/27 06:40,  999.0,    1.9,    0.9,    2.1,    3.1,    3.9,    4.4,    4.9,    4.7,    4.2,    4.2,    4.3,    4.0,    4.2,    3.9,    4.3,    4.4,    4.7,    4.3,    4.2,    4.3,    3.3,    2.8,    3.4,    3.6,    3.6,    3.1,    3.1,    2.8,  999.0,  999.0,  999.0,  999.0,   -2.4,   -2.0,  999.0,  999.0,  999.0,  999.0,  999.0,  999.0,  999.0,  999.0,  999.0,  999.0,  999.0,  999.0,  999.0,  999.0,  999.0,  999.0,  999.0,  999.0,  999.0,  999.0,  999.0,  999.0,  999.0,  999.0,  999.0,  999.0,  999.0,  999.0,  999.0,  999.0,  999.0,  999.0,  999.0,  999.0,  999.0,  999.0,  999.0,  999.0,  999.0,  999.0,  999.0,  999.0,  999.0,  999.0,  999.0,  999.0,  999.0,  999.0,  999.0,  999.0,  999.0,  999.0,  999.0,  999.0,  999.0,  999.0,  999.0,  999.0,  999.0,  999.0,  999.0,  999.0,  999.0
2010/10/27 06:50,    0.1,    0.2,    0.3,    1.0,    2.4,    2.7,    3.4,    3.5,    3.7,    4.0,    3.8,    3.2,    3.0,    3.7,    3.7,    4.1,    4.8,    5.1,    4.8,    4.3,    3.9,    3.9,    3.1,    3.4,    3.2,    3.1,    3.1,    3.5,    3.0,  999.0,  999.0,  999.0,  999.0,  999.0,  999.0,  999.0,  999.0,  999.0,  999.0,  999.0,  999.0,  999.0,  999.0,  999.0,  999.0,  999.0,  999.0,  999.0,  999.0,  999.0,  999.0,  999.0,  999.0,  999.0,  999.0,  999.0,  999.0,  999.0,  999.0,  999.0,  999.0,  999.0,  999.0,  999.0,  999.0,  999.0,  999.0,  999.0,  999.0,  999.0,  999.0,  999.0,  999.0,  999.0,  999.0,  999.0,  999.0,  999.0,  999.0,  999.0,  999.0,  999.0,  999.0,  999.0,  999.0,  999.0,  999.0,  999.0,  999.0,  999.0,  999.0,  999.0,  999.0,  999.0,  999.0,  999.0,  999.0,  999.0
2010/10/27 07:00,   -0.1,   -0.2,    0.1,    0.3,    1.6,    2.4,    3.2,    3.3,    2.6,    2.1,    2.6,    2.9,    3.5,    4.3,    5.1,    5.7,    5.8,    5.9,    5.5,    4.8,    3.9,    4.4,    2.9,    3.0,    2.9,    2.7,    3.1,    4.2,    4.5,  999.0,  999.0,  999.0,  999.0,  999.0,  999.0,  999.0,  999.0,  999.0,  999.0,  999.0,  999.0,  999.0,  999.0,  999.0,  999.0,  999.0,  999.0,  999.0,  999.0,  999.0,  999.0,  999.0,  999.0,  999.0,  999.0,  999.0,  999.0,  999.0,  999.0,  999.0,  999.0,  999.0,  999.0,  999.0,  999.0,  999.0,  999.0,  999.0,  999.0,  999.0,  999.0,  999.0,  999.0,  999.0,  999.0,  999.0,  999.0,  999.0,  999.0,  999.0,  999.0,  999.0,  999.0,  999.0,  999.0,  999.0,  999.0,  999.0,  999.0,  999.0,  999.0,  999.0,  999.0,  999.0,  999.0,  999.0,  999.0,  999.0
2010/10/27 07:10,    0.3,    0.4,    0.2,    0.1,    1.3,    2.2,    2.9,    2.9,    2.5,    2.0,    2.5,    3.2,    4.0,    4.9,    5.2,    5.9,    6.3,    5.9,    6.2,    5.0,    5.0,    5.5,    3.9,    3.2,    3.7,    3.6,    3.0,    3.6,    4.2,    3.9,  999.0,  999.0,  999.0,  999.0,  999.0,  999.0,  999.0,  999.0,   -2.9,  999.0,  999.0,  999.0,  999.0,  999.0,  999.0,  999.0,  999.0,  999.0,  999.0,  999.0,  999.0,  999.0,  999.0,  999.0,  999.0,  999.0,  999.0,  999.0,  999.0,  999.0,  999.0,  999.0,  999.0,  999.0,  999.0,  999.0,  999.0,  999.0,  999.0,  999.0,  999.0,  999.0,  999.0,  999.0,  999.0,  999.0,  999.0,  999.0,  999.0,  999.0,  999.0,  999.0,  999.0,  999.0,  999.0,  999.0,  999.0,  999.0,  999.0,  999.0,  999.0,  999.0,  999.0,  999.0,  999.0,  999.0,  999.0,  999.0
2010/10/27 07:20,    0.2,    0.3,    0.3,    0.1,    0.4,    1.5,    2.5,    3.2,    2.4,    2.5,    3.1,    3.6,    3.5,    3.9,    4.9,    6.3,    7.1,    5.3,    4.9,    4.6,    4.7,    4.1,    3.6,    3.1,    3.4,    3.4,    2.9,    3.5,    4.0,    4.1,  999.0,  999.0,  999.0,  999.0,  999.0,  999.0,  999.0,   -2.1,   -2.9,  999.0,  999.0,  999.0,  999.0,  999.0,   -2.5,  999.0,  999.0,  999.0,  999.0,  999.0,   -4.5,  999.0,  999.0,  999.0,  999.0,  999.0,  999.0,  999.0,  999.0,  999.0,  999.0,  999.0,  999.0,  999.0,  999.0,  999.0,  999.0,  999.0,  999.0,  999.0,  999.0,  999.0,  999.0,  999.0,  999.0,  999.0,  999.0,  999.0,  999.0,  999.0,  999.0,  999.0,  999.0,  999.0,  999.0,  999.0,  999.0,  999.0,  999.0,  999.0,  999.0,  999.0,  999.0,  999.0,  999.0,  999.0,  999.0,  999.0
2010/10/27 07:30,    0.6,    1.0,    0.4,    0.5,    0.7,    1.5,    2.4,    3.5,    3.0,  999.0,    3.5,    4.0,    4.2,    3.8,    5.3,    6.7,    5.4,    5.1,    4.4,    3.9,    3.9,    3.7,    3.6,    3.2,    2.9,    3.0,    2.6,    3.4,    4.1,    3.7,    3.5,  999.0,  999.0,  999.0,  999.0,  999.0,  999.0,  999.0,   -2.5,  999.0,  999.0,  999.0,  999.0,  999.0,  999.0,  999.0,  999.0,  999.0,  999.0,  999.0,  999.0,  999.0,  999.0,  999.0,  999.0,  999.0,  999.0,  999.0,  999.0,  999.0,  999.0,  999.0,  999.0,  999.0,  999.0,  999.0,  999.0,  999.0,  999.0,  999.0,  999.0,  999.0,  999.0,  999.0,  999.0,  999.0,  999.0,  999.0,  999.0,  999.0,  999.0,  999.0,  999.0,  999.0,  999.0,  999.0,  999.0,  999.0,  999.0,  999.0,  999.0,  999.0,  999.0,  999.0,  999.0,  999.0,  999.0,  999.0
2010/10/27 07:40,    0.3,    1.4,    1.0,    0.9,    0.3,    1.2,  999.0,    3.6,    3.3,  999.0,    3.5,    4.2,    4.3,    4.6,    5.6,    6.2,    5.5,    4.3,    3.7,    3.5,    3.2,    3.1,    3.0,    3.3,    2.8,    2.5,    2.3,    2.4,    3.3,    3.5,    2.9,    2.6,  999.0,  999.0,  999.0,  999.0,  999.0,  999.0,  999.0,  999.0,  999.0,  999.0,  999.0,  999.0,  999.0,  999.0,  999.0,  999.0,  999.0,  999.0,  999.0,  999.0,  999.0,  999.0,  999.0,  999.0,  999.0,  999.0,  999.0,  999.0,  999.0,  999.0,  999.0,  999.0,  999.0,  999.0,  999.0,  999.0,  999.0,  999.0,  999.0,  999.0,  999.0,  999.0,  999.0,  999.0,  999.0,  999.0,  999.0,  999.0,  999.0,  999.0,  999.0,  999.0,  999.0,  999.0,  999.0,  999.0,  999.0,  999.0,  999.0,  999.0,  999.0,  999.0,  999.0,  999.0,  999.0,  999.0
2010/10/27 07:50,    0.5,    1.6,    1.1,    1.1,    1.5,    1.6,    2.6,    3.7,    3.5,  999.0,  999.0,  999.0,    4.4,    4.9,  999.0,    6.4,    5.2,    3.8,    3.4,    3.3,    2.8,    2.9,    2.9,    3.6,    3.6,    2.3,    2.1,    2.6,    3.1,    3.6,    3.5,    2.9,    2.5,  999.0,  999.0,  999.0,  999.0,  999.0,  999.0,  999.0,  999.0,  999.0,  999.0,  999.0,  999.0,  999.0,  999.0,  999.0,  999.0,  999.0,  999.0,  999.0,  999.0,  999.0,  999.0,  999.0,  999.0,  999.0,  999.0,  999.0,  999.0,  999.0,  999.0,  999.0,  999.0,  999.0,  999.0,  999.0,  999.0,  999.0,  999.0,  999.0,  999.0,  999.0,  999.0,  999.0,  999.0,  999.0,  999.0,  999.0,  999.0,  999.0,  999.0,  999.0,  999.0,  999.0,  999.0,  999.0,  999.0,  999.0,  999.0,  999.0,  999.0,  999.0,  999.0,  999.0,  999.0,  999.0
2010/10/27 08:00,    0.4,    1.8,    2.3,    2.8,    2.6,    3.0,    3.2,    3.6,  999.0,    5.6,    4.8,    5.0,    5.4,    5.4,    5.1,    5.5,    4.8,    3.1,    2.8,    2.5,    2.5,    2.4,    2.1,    2.7,    2.5,    1.8,    1.8,    2.2,    2.5,    3.3,    3.4,    3.1,    2.2,    1.5,  999.0,   -0.3,   -1.0,   -1.3,   -1.0,   -1.6,   -2.2,   -2.4,   -2.3,  999.0,   -1.5,   -2.0,  999.0,  999.0,   -3.6,  999.0,   -4.6,   -5.4,   -6.0,  999.0,  999.0,  999.0,  999.0,  999.0,  999.0,  999.0,  999.0,  999.0,  999.0,  999.0,  999.0,  999.0,  999.0,  999.0,  999.0,  999.0,  999.0,  999.0,  999.0,  999.0,  999.0,  999.0,  999.0,  999.0,  999.0,  999.0,  999.0,  999.0,  999.0,  999.0,  999.0,  999.0,  999.0,  999.0,  999.0,  999.0,  999.0,  999.0,  999.0,  999.0,  999.0,  999.0,  999.0,  999.0
2010/10/27 08:10,    0.7,    2.0,    2.4,    2.8,    2.8,    3.4,    4.2,    5.2,    5.8,    5.7,    5.0,    5.2,    5.8,    6.5,    5.2,    4.5,    3.8,    3.7,    3.2,    2.4,    2.1,    2.1,    2.3,    3.3,    3.3,    2.5,    2.4,    3.2,    3.3,    3.5,    3.0,    2.2,    1.4,    0.6,   -0.7,   -1.2,   -1.8,   -1.4,   -1.5,   -1.7,   -1.8,   -2.1,  999.0,  999.0,  999.0,  999.0,  999.0,   -3.4,  999.0,   -3.8,   -4.5,   -5.4,  999.0,  999.0,  999.0,  999.0,  999.0,  999.0,  999.0,  999.0,  999.0,  999.0,  999.0,  999.0,  999.0,  999.0,  999.0,  999.0,  999.0,  999.0,  999.0,  999.0,  999.0,  999.0,  999.0,  999.0,  999.0,  999.0,  999.0,  999.0,  999.0,  999.0,  999.0,  999.0,  999.0,  999.0,  999.0,  999.0,  999.0,  999.0,  999.0,  999.0,  999.0,  999.0,  999.0,  999.0,  999.0,  999.0
2010/10/27 08:20,    0.8,    2.0,    2.7,    2.9,    3.0,    4.3,    5.3,    5.6,    5.7,    5.9,    5.7,    6.0,    6.6,    7.0,    5.3,    4.4,    3.9,    3.5,    2.6,    2.3,    1.8,    1.6,    2.1,    3.9,    4.1,    2.7,    3.5,    4.2,    3.9,    2.4,    1.7,    2.1,    1.0,   -1.0,   -1.0,   -1.8,   -1.3,   -1.3,   -1.4,   -1.6,   -1.6,   -1.8,   -1.8,  999.0,  999.0,  999.0,   -2.4,  999.0,  999.0,   -4.0,  999.0,  999.0,  999.0,  999.0,  999.0,  999.0,  999.0,  999.0,  999.0,  999.0,  999.0,  999.0,  999.0,  999.0,  999.0,  999.0,  999.0,  999.0,  999.0,  999.0,  999.0,  999.0,  999.0,  999.0,  999.0,  999.0,  999.0,  999.0,  999.0,  999.0,  999.0,  999.0,  999.0,  999.0,  999.0,  999.0,  999.0,  999.0,  999.0,  999.0,  999.0,  999.0,  999.0,  999.0,  999.0,  999.0,  999.0,  999.0
2010/10/27 08:30,    0.3,    0.8,    1.5,    1.9,    3.6,    5.0,    5.2,    4.8,    5.5,    6.7,    6.9,    6.6,    6.7,  999.0,    5.2,    4.4,    4.4,    3.8,    2.8,    2.3,    1.7,    1.4,    2.5,    4.4,    4.2,    3.1,    4.1,    4.1,    3.4,    2.5,    2.2,  999.0,  999.0,  999.0,  999.0,   -1.5,  999.0,   -1.8,   -2.1,   -2.1,   -2.2,   -2.1,  999.0,   -1.5,  999.0,   -2.6,   -2.9,  999.0,   -3.3,  999.0,  999.0,  999.0,  999.0,  999.0,  999.0,  999.0,  999.0,  999.0,  999.0,  999.0,  999.0,  999.0,  999.0,  999.0,  999.0,  999.0,  999.0,  999.0,  999.0,  999.0,  999.0,  999.0,  999.0,  999.0,  999.0,  999.0,  999.0,  999.0,  999.0,  999.0,  999.0,  999.0,  999.0,  999.0,  999.0,  999.0,  999.0,  999.0,  999.0,  999.0,  999.0,  999.0,  999.0,  999.0,  999.0,  999.0,  999.0,  999.0
2010/10/27 08:40,  999.0,    1.5,    1.6,    2.1,    3.4,    5.1,    4.9,    4.3,    5.8,    6.4,    7.0,    6.7,    6.5,    5.4,  999.0,    4.9,    4.7,    3.6,    2.5,    2.2,    1.7,    1.5,    3.0,    3.7,    3.6,    3.3,    3.7,    3.6,    3.3,    2.6,    2.1,  999.0,  999.0,  999.0,  999.0,  999.0,  999.0,  999.0,  999.0,   -1.8,   -1.7,   -1.1,  999.0,  999.0,  999.0,  999.0,  999.0,  999.0,  999.0,  999.0,  999.0,  999.0,  999.0,  999.0,  999.0,  999.0,  999.0,  999.0,  999.0,  999.0,  999.0,  999.0,  999.0,  999.0,  999.0,  999.0,  999.0,  999.0,  999.0,  999.0,  999.0,  999.0,  999.0,  999.0,  999.0,  999.0,  999.0,  999.0,  999.0,  999.0,  999.0,  999.0,  999.0,  999.0,  999.0,  999.0,  999.0,  999.0,  999.0,  999.0,  999.0,  999.0,  999.0,  999.0,  999.0,  999.0,  999.0,  999.0
2010/10/27 08:50,    1.5,  999.0,    2.4,    3.1,    2.3,    3.4,    3.7,    4.6,    4.9,    4.6,    5.3,    5.8,    6.2,    5.7,    4.7,    4.7,    5.1,    4.6,    3.3,    2.6,    1.9,    1.3,    2.2,    3.0,    2.8,    3.0,    3.4,    3.2,    3.0,    2.5,    2.1,  999.0,  999.0,  999.0,  999.0,  999.0,  999.0,  999.0,  999.0,  999.0,   -1.8,  999.0,  999.0,  999.0,  999.0,  999.0,  999.0,  999.0,  999.0,  999.0,  999.0,  999.0,  999.0,  999.0,  999.0,  999.0,  999.0,  999.0,  999.0,  999.0,  999.0,  999.0,  999.0,  999.0,  999.0,  999.0,  999.0,  999.0,  999.0,  999.0,  999.0,  999.0,  999.0,  999.0,  999.0,  999.0,  999.0,  999.0,  999.0,  999.0,  999.0,  999.0,  999.0,  999.0,  999.0,  999.0,  999.0,  999.0,  999.0,  999.0,  999.0,  999.0,  999.0,  999.0,  999.0,  999.0,  999.0,  999.0
2010/10/27 09:00,    0.9,    0.6,    1.0,    1.4,    1.5,    3.1,    2.4,    3.2,    6.5,    4.0,    4.3,    5.8,    6.1,    6.4,    6.4,    5.7,    5.2,    5.2,    4.5,    3.1,    2.1,    1.3,    2.4,    2.9,    2.8,    2.9,    3.3,    3.7,    3.1,    2.9,    2.2,    1.1,  999.0,  999.0,  999.0,  999.0,  999.0,  999.0,  999.0,  999.0,  999.0,  999.0,  999.0,  999.0,  999.0,  999.0,  999.0,  999.0,  999.0,  999.0,  999.0,  999.0,  999.0,  999.0,  999.0,  999.0,  999.0,  999.0,  999.0,  999.0,  999.0,  999.0,  999.0,  999.0,  999.0,  999.0,  999.0,  999.0,  999.0,  999.0,  999.0,  999.0,  999.0,  999.0,  999.0,  999.0,  999.0,  999.0,  999.0,  999.0,  999.0,  999.0,  999.0,  999.0,  999.0,  999.0,  999.0,  999.0,  999.0,  999.0,  999.0,  999.0,  999.0,  999.0,  999.0,  999.0,  999.0,  999.0
2010/10/27 09:10,    0.2,    2.2,    2.3,    2.1,    2.2,    2.2,    2.2,    2.3,    2.5,    0.9,    3.3,    4.8,    4.9,    4.0,    6.6,    5.6,    5.4,    5.0,    5.0,    3.7,    2.6,    1.8,    3.0,    2.9,    2.9,    2.7,    3.3,    3.5,    3.4,    3.0,    2.7,  999.0,    1.6,  999.0,  999.0,  999.0,  999.0,  999.0,  999.0,  999.0,  999.0,  999.0,  999.0,  999.0,  999.0,  999.0,  999.0,  999.0,  999.0,  999.0,  999.0,  999.0,  999.0,  999.0,  999.0,  999.0,  999.0,  999.0,  999.0,  999.0,  999.0,  999.0,  999.0,  999.0,  999.0,  999.0,  999.0,  999.0,  999.0,  999.0,  999.0,  999.0,  999.0,  999.0,  999.0,  999.0,  999.0,  999.0,  999.0,  999.0,  999.0,  999.0,  999.0,  999.0,  999.0,  999.0,  999.0,  999.0,  999.0,  999.0,  999.0,  999.0,  999.0,  999.0,  999.0,  999.0,  999.0,  999.0
2010/10/27 09:20,    1.2,    2.1,    2.1,    1.9,    2.2,    2.6,    3.1,    3.1,    3.4,    3.7,    4.2,    4.7,    5.0,    5.6,    6.0,    6.0,    5.5,    5.4,    5.4,    4.6,    3.4,    2.0,    2.2,    3.2,    3.0,    2.5,    2.6,    2.6,    2.7,    2.3,    2.1,  999.0,    1.1,  999.0,  999.0,  999.0,  999.0,  999.0,  999.0,  999.0,  999.0,  999.0,  999.0,  999.0,  999.0,  999.0,  999.0,  999.0,  999.0,  999.0,  999.0,  999.0,  999.0,  999.0,  999.0,  999.0,  999.0,  999.0,  999.0,  999.0,  999.0,  999.0,  999.0,  999.0,  999.0,  999.0,  999.0,  999.0,  999.0,  999.0,  999.0,  999.0,  999.0,  999.0,  999.0,  999.0,  999.0,  999.0,  999.0,  999.0,  999.0,  999.0,  999.0,  999.0,  999.0,  999.0,  999.0,  999.0,  999.0,  999.0,  999.0,  999.0,  999.0,  999.0,  999.0,  999.0,  999.0,  999.0
2010/10/27 09:30,  999.0,  999.0,  999.0,    2.6,    3.1,    3.0,    3.3,    3.6,    3.7,    4.2,    4.4,    4.3,    4.4,    4.9,    5.2,    5.4,    4.9,    5.0,    4.8,    4.7,    3.5,    2.2,    2.4,    2.7,    2.7,    2.6,    2.1,    1.5,    1.3,    1.5,    1.4,  999.0,  999.0,  999.0,  999.0,  999.0,  999.0,  999.0,  999.0,  999.0,  999.0,  999.0,  999.0,  999.0,  999.0,  999.0,  999.0,  999.0,  999.0,  999.0,  999.0,  999.0,  999.0,  999.0,  999.0,  999.0,  999.0,  999.0,  999.0,  999.0,  999.0,  999.0,  999.0,  999.0,  999.0,  999.0,  999.0,  999.0,  999.0,  999.0,  999.0,  999.0,  999.0,  999.0,  999.0,  999.0,  999.0,  999.0,  999.0,  999.0,  999.0,  999.0,  999.0,  999.0,  999.0,  999.0,  999.0,  999.0,  999.0,  999.0,  999.0,  999.0,  999.0,  999.0,  999.0,  999.0,  999.0,  999.0
2010/10/27 09:40,    0.2,    2.8,    2.5,    1.5,    3.0,    1.9,    4.5,    3.9,    4.2,    4.4,    4.8,    4.2,    4.5,    5.2,    5.6,    5.7,    5.3,    5.2,    5.4,    3.8,    4.7,    3.8,    3.3,    3.1,    3.4,    3.1,    2.8,    2.3,    1.8,    1.7,    2.0,  999.0,  999.0,    2.3,  999.0,  999.0,  999.0,  999.0,  999.0,  999.0,  999.0,  999.0,  999.0,  999.0,  999.0,  999.0,  999.0,  999.0,  999.0,  999.0,  999.0,  999.0,  999.0,  999.0,  999.0,  999.0,  999.0,  999.0,  999.0,  999.0,  999.0,  999.0,  999.0,  999.0,  999.0,  999.0,  999.0,  999.0,  999.0,  999.0,  999.0,  999.0,  999.0,  999.0,  999.0,  999.0,  999.0,  999.0,  999.0,  999.0,  999.0,  999.0,  999.0,  999.0,  999.0,  999.0,  999.0,  999.0,  999.0,  999.0,  999.0,  999.0,  999.0,  999.0,  999.0,  999.0,  999.0,  999.0
2010/10/27 09:50,    0.2,  999.0,    1.6,    1.3,    0.5,    2.8,    2.7,    3.5,    4.2,    4.6,    5.0,    5.2,    5.8,    6.5,    6.8,    7.2,    7.3,    6.4,    6.5,    6.2,    5.7,    5.0,    4.4,    4.4,    4.0,    3.4,    3.2,    2.9,  999.0,  999.0,  999.0,  999.0,  999.0,  999.0,  999.0,  999.0,  999.0,  999.0,  999.0,  999.0,  999.0,  999.0,  999.0,  999.0,  999.0,  999.0,  999.0,  999.0,  999.0,  999.0,  999.0,  999.0,  999.0,  999.0,  999.0,  999.0,  999.0,  999.0,  999.0,  999.0,  999.0,  999.0,  999.0,  999.0,  999.0,  999.0,  999.0,  999.0,  999.0,  999.0,  999.0,  999.0,  999.0,  999.0,  999.0,  999.0,  999.0,  999.0,  999.0,  999.0,  999.0,  999.0,  999.0,  999.0,  999.0,  999.0,  999.0,  999.0,  999.0,  999.0,  999.0,  999.0,  999.0,  999.0,  999.0,  999.0,  999.0,  999.0
2010/10/27 10:00,    0.0,  999.0,    1.8,    2.3,    1.9,    2.1,    2.7,    3.7,    4.6,    5.2,    5.2,    5.5,    5.4,    5.8,    6.1,    6.4,    6.7,    6.6,    6.3,    6.3,    6.4,    5.2,    4.3,    4.4,    4.6,    3.5,    3.3,    3.0,    2.7,  999.0,  999.0,  999.0,  999.0,  999.0,  999.0,  999.0,  999.0,  999.0,  999.0,  999.0,  999.0,  999.0,  999.0,  999.0,  999.0,  999.0,  999.0,  999.0,  999.0,  999.0,  999.0,  999.0,  999.0,  999.0,  999.0,  999.0,  999.0,  999.0,  999.0,  999.0,  999.0,  999.0,  999.0,  999.0,  999.0,  999.0,  999.0,  999.0,  999.0,  999.0,  999.0,  999.0,  999.0,  999.0,  999.0,  999.0,  999.0,  999.0,  999.0,  999.0,  999.0,  999.0,  999.0,  999.0,  999.0,  999.0,  999.0,  999.0,  999.0,  999.0,  999.0,  999.0,  999.0,  999.0,  999.0,  999.0,  999.0,  999.0
2010/10/27 10:10,    1.7,    1.3,    4.1,    3.0,    2.8,    3.0,    3.4,    4.2,    4.8,    5.0,    5.4,    4.8,    4.7,    4.8,    5.6,    6.2,    6.6,    6.5,    6.4,    6.3,    6.2,    5.3,    4.8,    5.0,    5.2,    4.2,    3.6,    3.5,    3.8,    4.0,  999.0,  999.0,  999.0,  999.0,  999.0,  999.0,  999.0,  999.0,  999.0,  999.0,  999.0,  999.0,  999.0,  999.0,  999.0,  999.0,  999.0,  999.0,  999.0,  999.0,  999.0,  999.0,  999.0,  999.0,  999.0,  999.0,  999.0,  999.0,  999.0,  999.0,  999.0,  999.0,  999.0,  999.0,  999.0,  999.0,  999.0,  999.0,  999.0,  999.0,  999.0,  999.0,  999.0,  999.0,  999.0,  999.0,  999.0,  999.0,  999.0,  999.0,  999.0,  999.0,  999.0,  999.0,  999.0,  999.0,  999.0,  999.0,  999.0,  999.0,  999.0,  999.0,  999.0,  999.0,  999.0,  999.0,  999.0,  999.0
2010/10/27 10:20,   -0.1,    0.2,    0.8,    0.7,    1.7,    2.1,    2.4,    2.9,    3.7,    4.6,    5.2,    5.7,    6.2,    6.8,    6.8,    6.7,    6.3,    6.6,    6.7,    6.5,    6.4,    6.1,    5.9,    5.5,    5.8,    5.2,    3.3,    3.6,    3.5,    4.0,  999.0,  999.0,  999.0,  999.0,    1.8,    0.6,    0.6,  999.0,    0.2,  999.0,  999.0,  999.0,  999.0,  999.0,  999.0,  999.0,  999.0,  999.0,  999.0,  999.0,  999.0,  999.0,  999.0,  999.0,  999.0,  999.0,  999.0,  999.0,  999.0,  999.0,  999.0,  999.0,  999.0,  999.0,  999.0,  999.0,  999.0,  999.0,  999.0,  999.0,  999.0,  999.0,  999.0,  999.0,  999.0,  999.0,  999.0,  999.0,  999.0,  999.0,  999.0,  999.0,  999.0,  999.0,  999.0,  999.0,  999.0,  999.0,  999.0,  999.0,  999.0,  999.0,  999.0,  999.0,  999.0,  999.0,  999.0,  999.0
2010/10/27 10:30,    0.1,    1.5,    2.0,    2.2,    2.4,    2.6,    3.3,    4.1,    5.0,    5.6,    5.7,    6.0,    6.0,    6.4,    6.6,    6.9,    6.2,    5.7,    5.9,    5.2,    5.1,    5.0,    5.1,    5.0,    5.2,    5.1,    4.0,    3.1,    2.9,  999.0,    3.3,  999.0,  999.0,  999.0,    1.9,    0.1,    0.2,   -0.1,   -0.2,  999.0,  999.0,  999.0,  999.0,  999.0,  999.0,  999.0,  999.0,  999.0,  999.0,  999.0,  999.0,  999.0,  999.0,  999.0,  999.0,  999.0,  999.0,  999.0,  999.0,  999.0,  999.0,  999.0,  999.0,  999.0,  999.0,  999.0,  999.0,  999.0,  999.0,  999.0,  999.0,  999.0,  999.0,  999.0,  999.0,  999.0,  999.0,  999.0,  999.0,  999.0,  999.0,  999.0,  999.0,  999.0,  999.0,  999.0,  999.0,  999.0,  999.0,  999.0,  999.0,  999.0,  999.0,  999.0,  999.0,  999.0,  999.0,  999.0
2010/10/27 10:40,  999.0,    1.5,    1.1,    2.3,    2.4,    3.0,    3.5,    4.7,    5.5,    5.7,    5.7,    6.4,    5.7,    6.0,    6.4,    6.4,    6.5,    6.1,    6.7,    6.2,    5.0,    5.0,    5.1,    5.0,    4.6,    4.5,    4.1,    4.2,  999.0,  999.0,    2.3,  999.0,  999.0,  999.0,    1.2,    0.9,    0.6,    0.6,    0.4,    0.2,  999.0,  999.0,  999.0,  999.0,  999.0,  999.0,  999.0,  999.0,  999.0,  999.0,  999.0,  999.0,  999.0,  999.0,  999.0,  999.0,  999.0,  999.0,  999.0,  999.0,  999.0,  999.0,  999.0,  999.0,  999.0,  999.0,  999.0,  999.0,  999.0,  999.0,  999.0,  999.0,  999.0,  999.0,  999.0,  999.0,  999.0,  999.0,  999.0,  999.0,  999.0,  999.0,  999.0,  999.0,  999.0,  999.0,  999.0,  999.0,  999.0,  999.0,  999.0,  999.0,  999.0,  999.0,  999.0,  999.0,  999.0,  999.0
2010/10/27 10:50,   -0.2,  999.0,    1.3,  999.0,    2.5,    3.3,    4.0,    4.3,    4.6,    5.6,    6.2,    5.9,    6.0,    6.2,    6.2,    6.4,    6.3,    6.2,    6.3,    5.3,    4.4,    5.2,    5.3,    4.6,    4.1,    3.4,    3.7,  999.0,  999.0,  999.0,  999.0,  999.0,    1.3,    1.2,    1.3,    1.2,    0.5,    0.3,   -0.1,   -0.7,  999.0,  999.0,  999.0,  999.0,  999.0,  999.0,  999.0,  999.0,  999.0,  999.0,  999.0,  999.0,  999.0,  999.0,  999.0,  999.0,  999.0,  999.0,  999.0,  999.0,  999.0,  999.0,  999.0,  999.0,  999.0,  999.0,  999.0,  999.0,  999.0,  999.0,  999.0,  999.0,  999.0,  999.0,  999.0,  999.0,  999.0,  999.0,  999.0,  999.0,  999.0,  999.0,  999.0,  999.0,  999.0,  999.0,  999.0,  999.0,  999.0,  999.0,  999.0,  999.0,  999.0,  999.0,  999.0,  999.0,  999.0,  999.0
2010/10/27 11:00,  999.0,    3.0,    3.6,    3.4,    3.6,    3.9,    4.2,    4.7,    5.7,    6.1,    6.0,    5.7,    5.2,    5.4,    5.2,    5.6,    5.5,    5.4,    5.4,    5.7,    5.4,    5.7,    5.4,    4.8,    4.0,    3.8,    3.9,  999.0,  999.0,  999.0,  999.0,  999.0,  999.0,  999.0,  999.0,    0.9,    0.7,    0.3,   -0.7,   -0.8,  999.0,  999.0,  999.0,  999.0,  999.0,  999.0,  999.0,  999.0,  999.0,  999.0,  999.0,  999.0,  999.0,  999.0,  999.0,  999.0,  999.0,  999.0,  999.0,  999.0,  999.0,  999.0,  999.0,  999.0,  999.0,  999.0,  999.0,  999.0,  999.0,  999.0,  999.0,  999.0,  999.0,  999.0,  999.0,  999.0,  999.0,  999.0,  999.0,  999.0,  999.0,  999.0,  999.0,  999.0,  999.0,  999.0,  999.0,  999.0,  999.0,  999.0,  999.0,  999.0,  999.0,  999.0,  999.0,  999.0,  999.0,  999.0
2010/10/27 11:10,  999.0,  999.0,    3.1,  999.0,    4.2,    4.7,    4.6,    4.6,    5.1,    5.7,    6.0,    5.4,    5.3,    5.4,    5.6,    6.2,    6.8,    6.2,    4.8,    4.7,    4.4,    4.2,    3.9,    3.6,    3.3,    3.3,    3.3,  999.0,  999.0,  999.0,    1.6,    0.9,  999.0,  999.0,  999.0,   -0.3,   -0.1,   -1.0,   -0.7,  999.0,  999.0,  999.0,  999.0,  999.0,  999.0,  999.0,  999.0,  999.0,   -3.2,  999.0,  999.0,  999.0,  999.0,  999.0,  999.0,  999.0,  999.0,  999.0,  999.0,  999.0,  999.0,  999.0,  999.0,  999.0,  999.0,  999.0,  999.0,  999.0,  999.0,  999.0,  999.0,  999.0,  999.0,  999.0,  999.0,  999.0,  999.0,  999.0,  999.0,  999.0,  999.0,  999.0,  999.0,  999.0,  999.0,  999.0,  999.0,  999.0,  999.0,  999.0,  999.0,  999.0,  999.0,  999.0,  999.0,  999.0,  999.0,  999.0
2010/10/27 11:20,  999.0,    2.7,    3.7,    5.6,    4.6,    4.9,    4.8,    5.1,    5.2,    5.0,    5.8,    5.1,    4.8,    5.2,    5.2,    5.1,    5.0,    4.4,    4.9,    5.0,    5.2,    5.9,    5.4,    4.4,    3.4,  999.0,    3.8,  999.0,    1.9,    1.5,    0.7,    0.6,    0.5,  999.0,  999.0,  999.0,  999.0,  999.0,  999.0,  999.0,  999.0,  999.0,  999.0,  999.0,  999.0,  999.0,  999.0,  999.0,  999.0,  999.0,  999.0,  999.0,  999.0,  999.0,  999.0,  999.0,  999.0,  999.0,  999.0,  999.0,  999.0,  999.0,  999.0,  999.0,  999.0,  999.0,  999.0,  999.0,  999.0,  999.0,  999.0,  999.0,  999.0,  999.0,  999.0,  999.0,  999.0,  999.0,  999.0,  999.0,  999.0,  999.0,  999.0,  999.0,  999.0,  999.0,  999.0,  999.0,  999.0,  999.0,  999.0,  999.0,  999.0,  999.0,  999.0,  999.0,  999.0,  999.0
2010/10/27 11:30,  999.0,  999.0,    5.6,    5.6,    6.1,    5.9,    6.2,    6.4,    5.4,    5.7,    5.3,    5.6,    5.1,    6.1,    4.9,    5.4,    4.0,    5.8,  999.0,    5.2,    4.7,    4.3,    4.8,    3.7,    3.8,    3.7,    3.8,    3.9,    3.1,    1.2,    0.6,    0.5,    0.6,   -0.2,  999.0,  999.0,  999.0,  999.0,  999.0,  999.0,  999.0,  999.0,  999.0,  999.0,  999.0,  999.0,  999.0,  999.0,  999.0,  999.0,  999.0,  999.0,  999.0,  999.0,  999.0,  999.0,  999.0,  999.0,  999.0,  999.0,  999.0,  999.0,  999.0,  999.0,  999.0,  999.0,  999.0,  999.0,  999.0,  999.0,  999.0,  999.0,  999.0,  999.0,  999.0,  999.0,  999.0,  999.0,  999.0,  999.0,  999.0,  999.0,  999.0,  999.0,  999.0,  999.0,  999.0,  999.0,  999.0,  999.0,  999.0,  999.0,  999.0,  999.0,  999.0,  999.0,  999.0,  999.0
2010/10/27 11:40,  999.0,  999.0,  999.0,    5.1,    5.7,    6.5,    6.1,    5.4,    5.8,    5.8,    4.7,    5.2,    4.7,    4.7,    4.8,    5.6,    5.7,    5.3,    4.9,    4.7,    3.7,    3.6,    4.2,    3.8,    3.6,    3.6,    3.1,    3.0,    2.5,    1.0,    0.3,    0.6,    0.9,    1.3,  999.0,  999.0,  999.0,  999.0,  999.0,  999.0,  999.0,  999.0,  999.0,  999.0,  999.0,   -3.3,   -4.1,  999.0,  999.0,  999.0,  999.0,  999.0,  999.0,  999.0,  999.0,  999.0,  999.0,  999.0,  999.0,  999.0,  999.0,  999.0,  999.0,  999.0,  999.0,  999.0,  999.0,  999.0,  999.0,  999.0,  999.0,  999.0,  999.0,  999.0,  999.0,  999.0,  999.0,  999.0,  999.0,  999.0,  999.0,  999.0,  999.0,  999.0,  999.0,  999.0,  999.0,  999.0,  999.0,  999.0,  999.0,  999.0,  999.0,  999.0,  999.0,  999.0,  999.0,  999.0
2010/10/27 11:50,  999.0,  999.0,  999.0,    5.3,    5.2,    7.2,    6.4,    5.7,    5.8,    5.6,    4.6,    5.1,    5.4,    4.6,    5.4,    4.6,    4.9,    4.6,    5.4,    6.6,  999.0,    5.2,  999.0,  999.0,  999.0,    3.5,    3.4,    2.8,    2.1,    0.7,    0.3,    0.3,    0.2,    0.0,  999.0,  999.0,  999.0,  999.0,  999.0,  999.0,   -2.0,  999.0,  999.0,  999.0,   -3.1,   -4.3,   -5.4,   -5.9,  999.0,  999.0,  999.0,  999.0,  999.0,  999.0,  999.0,  999.0,  999.0,  999.0,  999.0,  999.0,  999.0,  999.0,  999.0,  999.0,  999.0,  999.0,  999.0,  999.0,  999.0,  999.0,  999.0,  999.0,  999.0,  999.0,  999.0,  999.0,  999.0,  999.0,  999.0,  999.0,  999.0,  999.0,  999.0,  999.0,  999.0,  999.0,  999.0,  999.0,  999.0,  999.0,  999.0,  999.0,  999.0,  999.0,  999.0,  999.0,  999.0,  999.0
2010/10/27 12:00,  999.0,    6.0,    6.3,    6.3,    6.1,    5.5,    5.8,    5.2,    5.8,    5.2,    4.6,    4.0,    2.2,    4.2,    4.3,    4.9,    4.8,    5.2,    5.6,    5.5,    5.3,    6.1,    6.6,    6.7,    6.2,    4.5,    4.3,    3.7,    3.1,    2.0,    1.7,    0.8,    0.4,   -0.2,  999.0,  999.0,  999.0,  999.0,  999.0,  999.0,  999.0,  999.0,  999.0,  999.0,  999.0,  999.0,  999.0,  999.0,  999.0,  999.0,  999.0,  999.0,  999.0,  999.0,  999.0,  999.0,  999.0,  999.0,  999.0,  999.0,  999.0,  999.0,  999.0,  999.0,  999.0,  999.0,  999.0,  999.0,  999.0,  999.0,  999.0,  999.0,  999.0,  999.0,  999.0,  999.0,  999.0,  999.0,  999.0,  999.0,  999.0,  999.0,  999.0,  999.0,  999.0,  999.0,  999.0,  999.0,  999.0,  999.0,  999.0,  999.0,  999.0,  999.0,  999.0,  999.0,  999.0,  999.0
2010/10/27 12:10,  999.0,  999.0,  999.0,    7.8,    6.9,    7.2,    7.0,    7.2,  999.0,    5.8,    5.8,    4.9,    5.1,    4.8,    4.6,    4.5,    4.4,    4.4,    4.4,    4.8,    4.9,    4.0,    4.8,    4.6,    4.8,    4.0,    3.7,    3.3,    3.0,    2.0,    1.8,  999.0,  999.0,    0.2,  999.0,  999.0,  999.0,   -0.5,  999.0,  999.0,  999.0,  999.0,   -1.6,   -2.8,  999.0,   -3.1,   -4.2,   -4.4,  999.0,  999.0,  999.0,  999.0,  999.0,  999.0,  999.0,  999.0,  999.0,  999.0,  999.0,  999.0,  999.0,  999.0,  999.0,  999.0,  999.0,  999.0,  999.0,  999.0,  999.0,  999.0,  999.0,  999.0,  999.0,  999.0,  999.0,  999.0,  999.0,  999.0,  999.0,  999.0,  999.0,  999.0,  999.0,  999.0,  999.0,  999.0,  999.0,  999.0,  999.0,  999.0,  999.0,  999.0,  999.0,  999.0,  999.0,  999.0,  999.0,  999.0
2010/10/27 12:20,  999.0,  999.0,    2.8,    4.5,    6.8,    5.2,    3.3,  999.0,    0.0,    0.0,    0.2,    0.2,    0.3,    0.3,    2.8,    4.6,    4.6,    5.2,    6.1,    6.4,    6.3,    6.2,  999.0,    6.1,    5.1,    4.6,    4.5,    4.4,  999.0,    2.1,    1.4,    0.2,   -1.2,   -0.5,   -0.8,  999.0,  999.0,   -2.1,  999.0,  999.0,  999.0,  999.0,   -3.2,  999.0,  999.0,   -4.5,   -5.1,   -4.7,   -6.5,   -7.5,  999.0,  999.0,  999.0,  999.0,  999.0,  999.0,  999.0,  999.0,  999.0,  999.0,  999.0,  999.0,  999.0,  999.0,  999.0,  999.0,  999.0,  999.0,  999.0,  999.0,  999.0,  999.0,  999.0,  999.0,  999.0,  999.0,  999.0,  999.0,  999.0,  999.0,  999.0,  999.0,  999.0,  999.0,  999.0,  999.0,  999.0,  999.0,  999.0,  999.0,  999.0,  999.0,  999.0,  999.0,  999.0,  999.0,  999.0,  999.0
2010/10/27 12:30,  999.0,    0.8,    2.4,    6.5,    6.6,    6.4,    7.4,    5.8,  999.0,    0.5,    0.1,    0.2,    0.2,    0.1,    0.2,    4.8,    5.0,    5.2,    5.3,    5.1,    4.5,    4.2,    4.4,    4.6,    4.4,    3.6,    3.8,  999.0,  999.0,    2.7,    1.9,    0.8,    0.3,  999.0,  999.0,  999.0,  999.0,  999.0,  999.0,  999.0,  999.0,  999.0,  999.0,  999.0,   -3.9,  999.0,   -4.1,   -4.8,   -6.1,   -7.0,   -7.3,  999.0,  999.0,  999.0,  999.0,  999.0,  999.0,  999.0,  999.0,  999.0,  999.0,  999.0,  999.0,  999.0,  999.0,  999.0,  999.0,  999.0,  999.0,  999.0,  999.0,  999.0,  999.0,  999.0,  999.0,  999.0,  999.0,  999.0,  999.0,  999.0,  999.0,  999.0,  999.0,  999.0,  999.0,  999.0,  999.0,  999.0,  999.0,  999.0,  999.0,  999.0,  999.0,  999.0,  999.0,  999.0,  999.0,  999.0
2010/10/27 12:40,  999.0,  999.0,    4.2,    6.7,    4.6,    6.7,    7.0,    6.8,    4.7,    4.1,    4.1,  999.0,    2.1,    2.8,    2.8,    5.5,    5.8,    6.0,    5.7,    5.3,    4.7,    4.4,    5.2,    6.1,  999.0,  999.0,    3.5,  999.0,  999.0,  999.0,    2.7,    1.9,  999.0,  999.0,  999.0,   -0.8,  999.0,  999.0,   -2.1,   -1.8,  999.0,  999.0,  999.0,  999.0,   -3.2,   -4.1,   -4.9,   -5.8,   -6.6,  999.0,  999.0,  999.0,  999.0,  999.0,  999.0,  999.0,  999.0,  999.0,  999.0,  999.0,  999.0,  999.0,  999.0,  999.0,  999.0,  999.0,  999.0,  999.0,  999.0,  999.0,  999.0,  999.0,  999.0,  999.0,  999.0,  999.0,  999.0,  999.0,  999.0,  999.0,  999.0,  999.0,  999.0,  999.0,  999.0,  999.0,  999.0,  999.0,  999.0,  999.0,  999.0,  999.0,  999.0,  999.0,  999.0,  999.0,  999.0,  999.0
2010/10/27 12:50,  999.0,  999.0,  999.0,    3.7,    3.6,    4.9,    6.9,    6.4,    6.3,    6.6,  999.0,  999.0,    3.9,    3.5,    4.3,    5.6,    5.3,    5.0,    5.1,    4.7,    4.6,    4.3,    5.4,    5.7,  999.0,    3.2,    3.4,  999.0,  999.0,  999.0,    2.7,  999.0,  999.0,  999.0,  999.0,  999.0,  999.0,   -1.3,   -1.5,  999.0,  999.0,  999.0,   -2.7,   -3.1,   -3.8,   -4.1,   -4.5,   -5.3,   -6.2,  999.0,  999.0,  999.0,  999.0,  999.0,  999.0,  999.0,  999.0,  999.0,  999.0,  999.0,  999.0,  999.0,  999.0,  999.0,  999.0,  999.0,  999.0,  999.0,  999.0,  999.0,  999.0,  999.0,  999.0,  999.0,  999.0,  999.0,  999.0,  999.0,  999.0,  999.0,  999.0,  999.0,  999.0,  999.0,  999.0,  999.0,  999.0,  999.0,  999.0,  999.0,  999.0,  999.0,  999.0,  999.0,  999.0,  999.0,  999.0,  999.0
2010/10/27 13:00,  999.0,  999.0,  999.0,    7.9,    7.7,    6.9,    6.7,    6.6,    6.8,    7.0,    6.5,    5.8,    6.9,  999.0,    6.1,    5.6,    5.8,    5.1,    4.8,    4.4,    4.4,    3.9,    4.4,    5.3,  999.0,    2.8,    3.6,  999.0,  999.0,    3.4,  999.0,  999.0,  999.0,  999.0,   -0.8,  999.0,  999.0,   -1.5,   -1.2,  999.0,  999.0,   -0.7,   -2.6,   -3.3,   -3.7,   -3.4,   -3.9,   -4.7,   -5.8,  999.0,  999.0,  999.0,  999.0,  999.0,  999.0,  999.0,  999.0,  999.0,  999.0,  999.0,  999.0,  999.0,  999.0,  999.0,  999.0,  999.0,  999.0,  999.0,  999.0,  999.0,  999.0,  999.0,  999.0,  999.0,  999.0,  999.0,  999.0,  999.0,  999.0,  999.0,  999.0,  999.0,  999.0,  999.0,  999.0,  999.0,  999.0,  999.0,  999.0,  999.0,  999.0,  999.0,  999.0,  999.0,  999.0,  999.0,  999.0,  999.0
2010/10/27 13:10,  999.0,  999.0,  999.0,    6.6,    6.1,    6.6,    6.4,    6.4,    6.4,    5.9,    6.2,    6.0,    5.9,    5.6,    5.3,    5.5,    5.6,    5.4,    4.7,    4.4,  999.0,  999.0,    5.2,    5.1,    5.1,    4.0,  999.0,    3.5,  999.0,    3.0,  999.0,  999.0,  999.0,  999.0,  999.0,  999.0,  999.0,  999.0,  999.0,  999.0,  999.0,   -1.4,   -2.2,  999.0,   -3.2,   -3.5,   -4.0,   -4.8,  999.0,  999.0,  999.0,  999.0,  999.0,  999.0,  999.0,  999.0,  999.0,  999.0,  999.0,  999.0,  999.0,  999.0,  999.0,  999.0,  999.0,  999.0,  999.0,  999.0,  999.0,  999.0,  999.0,  999.0,  999.0,  999.0,  999.0,  999.0,  999.0,  999.0,  999.0,  999.0,  999.0,  999.0,  999.0,  999.0,  999.0,  999.0,  999.0,  999.0,  999.0,  999.0,  999.0,  999.0,  999.0,  999.0,  999.0,  999.0,  999.0,  999.0
2010/10/27 13:20,  999.0,    6.0,    5.8,    6.4,    6.8,    6.5,    6.8,    6.8,    6.5,    6.0,    6.0,    6.3,    5.6,    6.0,    5.8,    6.0,    5.7,    4.7,    4.2,    4.1,    4.0,  999.0,    4.0,    3.8,    4.3,    3.7,    3.4,    3.4,  999.0,    2.1,  999.0,  999.0,  999.0,  999.0,  999.0,  999.0,  999.0,  999.0,  999.0,  999.0,  999.0,  999.0,  999.0,  999.0,  999.0,   -3.8,   -4.4,   -4.8,   -6.2,  999.0,  999.0,  999.0,  999.0,  999.0,  999.0,  999.0,  999.0,  999.0,  999.0,  999.0,  999.0,  999.0,  999.0,  999.0,  999.0,  999.0,  999.0,  999.0,  999.0,  999.0,  999.0,  999.0,  999.0,  999.0,  999.0,  999.0,  999.0,  999.0,  999.0,  999.0,  999.0,  999.0,  999.0,  999.0,  999.0,  999.0,  999.0,  999.0,  999.0,  999.0,  999.0,  999.0,  999.0,  999.0,  999.0,  999.0,  999.0,  999.0
2010/10/27 13:30,  999.0,  999.0,  999.0,  999.0,    7.5,    7.7,    7.6,    7.0,    7.2,    7.1,    7.4,    7.3,    6.4,    6.2,    6.3,    6.1,    6.3,    5.4,    5.5,    5.3,  999.0,  999.0,    4.4,    4.6,  999.0,    4.5,    4.0,    4.0,  999.0,    3.6,    2.6,  999.0,  999.0,  999.0,  999.0,  999.0,  999.0,  999.0,  999.0,  999.0,  999.0,  999.0,   -2.3,   -2.8,   -3.5,   -4.1,   -5.3,   -6.0,   -7.3,  999.0,   -6.7,  999.0,  999.0,  999.0,  999.0,  999.0,  999.0,  999.0,  999.0,  999.0,  999.0,  999.0,  999.0,  999.0,  999.0,  999.0,  999.0,  999.0,  999.0,  999.0,  999.0,  999.0,  999.0,  999.0,  999.0,  999.0,  999.0,  999.0,  999.0,  999.0,  999.0,  999.0,  999.0,  999.0,  999.0,  999.0,  999.0,  999.0,  999.0,  999.0,  999.0,  999.0,  999.0,  999.0,  999.0,  999.0,  999.0,  999.0
2010/10/27 13:40,  999.0,  999.0,    6.2,    7.3,    7.7,    7.5,    7.6,    7.9,    7.8,    7.9,    8.3,    7.9,    7.3,    7.1,    5.9,    5.7,  999.0,  999.0,  999.0,    4.7,    4.6,    4.8,  999.0,    4.7,    4.6,    4.8,  999.0,    4.2,    4.5,    3.8,    3.2,  999.0,  999.0,  999.0,  999.0,  999.0,  999.0,  999.0,  999.0,  999.0,  999.0,   -0.5,   -1.6,   -2.3,   -2.9,   -3.7,   -4.5,   -5.5,   -6.3,  999.0,   -6.1,   -6.5,  999.0,  999.0,  999.0,  999.0,  999.0,  999.0,  999.0,  999.0,  999.0,  999.0,  999.0,  999.0,  999.0,  999.0,  999.0,  999.0,  999.0,  999.0,  999.0,  999.0,  999.0,  999.0,  999.0,  999.0,  999.0,  999.0,  999.0,  999.0,  999.0,  999.0,  999.0,  999.0,  999.0,  999.0,  999.0,  999.0,  999.0,  999.0,  999.0,  999.0,  999.0,  999.0,  999.0,  999.0,  999.0,  999.0
2010/10/27 13:50,  999.0,  999.0,  999.0,    7.4,    7.4,    7.8,    7.6,    7.6,    7.9,    7.7,    8.6,    8.0,    7.7,  999.0,    6.6,    6.9,    7.5,    5.8,    6.0,    5.8,    5.3,    5.2,    4.8,  999.0,  999.0,    5.0,    5.4,    5.2,  999.0,  999.0,  999.0,    1.3,  999.0,  999.0,  999.0,  999.0,  999.0,  999.0,  999.0,  999.0,  999.0,   -1.2,   -1.8,   -2.3,   -2.9,  999.0,   -5.4,  999.0,   -5.6,   -6.5,   -6.6,  999.0,  999.0,  999.0,  999.0,  999.0,  999.0,  999.0,  999.0,  999.0,  999.0,  999.0,  999.0,  999.0,  999.0,  999.0,  999.0,  999.0,  999.0,  999.0,  999.0,  999.0,  999.0,  999.0,  999.0,  999.0,  999.0,  999.0,  999.0,  999.0,  999.0,  999.0,  999.0,  999.0,  999.0,  999.0,  999.0,  999.0,  999.0,  999.0,  999.0,  999.0,  999.0,  999.0,  999.0,  999.0,  999.0,  999.0
2010/10/27 14:00,  999.0,    5.9,  999.0,    8.5,    7.9,    7.9,    7.4,    7.1,    7.2,    6.8,    7.1,    6.6,    6.8,    7.3,    7.1,    7.4,    6.9,    5.2,    5.6,    5.8,    5.4,    4.9,    4.7,    4.9,    3.9,    3.9,    4.5,    5.0,  999.0,  999.0,  999.0,    1.7,    1.2,  999.0,  999.0,  999.0,  999.0,  999.0,  999.0,  999.0,  999.0,   -1.2,  999.0,   -2.5,   -2.9,  999.0,  999.0,  999.0,  999.0,   -6.1,   -5.7,   -5.7,   -5.8,  999.0,  999.0,  999.0,  999.0,  999.0,  999.0,  999.0,  999.0,  999.0,  999.0,  999.0,  999.0,  999.0,  999.0,  999.0,  999.0,  999.0,  999.0,  999.0,  999.0,  999.0,  999.0,  999.0,  999.0,  999.0,  999.0,  999.0,  999.0,  999.0,  999.0,  999.0,  999.0,  999.0,  999.0,  999.0,  999.0,  999.0,  999.0,  999.0,  999.0,  999.0,  999.0,  999.0,  999.0,  999.0
2010/10/27 14:10,  999.0,  999.0,  999.0,    7.9,  999.0,    7.1,    7.2,    7.4,    7.5,    7.1,    6.7,    7.2,    7.0,    7.4,    7.2,    7.2,    6.3,    5.9,    6.0,    5.8,    5.0,    5.2,    6.2,    5.1,    4.9,    5.0,    5.5,    5.7,  999.0,  999.0,  999.0,  999.0,  999.0,  999.0,  999.0,  999.0,  999.0,  999.0,  999.0,  999.0,  999.0,  999.0,  999.0,   -2.1,   -2.3,   -3.5,   -4.0,   -4.4,   -4.9,   -5.3,   -5.1,   -5.3,   -4.2,   -4.9,   -5.8,  999.0,  999.0,  999.0,  999.0,  999.0,  999.0,  999.0,  999.0,  999.0,  999.0,  999.0,  999.0,  999.0,  999.0,  999.0,  999.0,  999.0,  999.0,  999.0,  999.0,  999.0,  999.0,  999.0,  999.0,  999.0,  999.0,  999.0,  999.0,  999.0,  999.0,  999.0,  999.0,  999.0,  999.0,  999.0,  999.0,  999.0,  999.0,   -4.8,   -5.4,   -5.9,   -5.9,   -6.0
2010/10/27 14:20,  999.0,    7.3,    7.7,    7.2,    7.0,    7.2,    7.6,    7.7,    7.4,    6.8,    6.7,    6.6,    6.6,    6.5,    6.1,    5.9,    5.7,    5.8,    5.1,    3.6,    3.0,    2.8,    3.3,    3.9,    4.4,    4.6,    5.3,    5.7,    4.9,    4.3,  999.0,    2.8,  999.0,  999.0,  999.0,  999.0,  999.0,  999.0,  999.0,  999.0,  999.0,   -5.5,   -5.3,   -3.8,  999.0,  999.0,   -4.3,  999.0,  999.0,  999.0,  999.0,   -4.1,   -4.3,  999.0,  999.0,  999.0,  999.0,  999.0,  999.0,  999.0,  999.0,  999.0,  999.0,  999.0,  999.0,  999.0,  999.0,  999.0,  999.0,  999.0,  999.0,  999.0,  999.0,  999.0,  999.0,  999.0,  999.0,  999.0,  999.0,  999.0,  999.0,  999.0,  999.0,   -3.4,   -3.0,   -2.4,   -2.7,   -3.2,   -4.0,   -4.4,   -5.1,   -5.6,   -6.0,   -6.2,   -6.6,   -6.8,   -7.1,   -7.9
2010/10/27 14:30,  999.0,    6.6,    7.6,    7.2,    7.3,    7.0,    7.0,    6.8,    6.6,    7.0,    6.3,    6.1,    6.5,    6.6,    6.0,    5.7,    5.7,    5.0,    5.6,    4.9,    3.9,    4.1,    4.1,    4.9,    4.3,    3.9,    4.7,    5.2,    4.5,  999.0,  999.0,    2.5,  999.0,  999.0,    0.2,    0.2,  999.0,   -0.3,  999.0,  999.0,  999.0,  999.0,  999.0,   -1.8,   -1.4,  999.0,   -2.8,   -3.6,  999.0,  999.0,  999.0,   -3.0,   -3.8,   -4.1,   -4.1,  999.0,  999.0,  999.0,  999.0,  999.0,  999.0,  999.0,  999.0,  999.0,  999.0,  999.0,  999.0,  999.0,  999.0,  999.0,  999.0,  999.0,  999.0,  999.0,  999.0,  999.0,  999.0,   -7.1,   -6.9,   -5.8,   -5.3,   -4.7,   -4.2,   -3.5,   -3.1,   -2.8,   -2.9,   -3.1,   -3.3,   -3.7,   -4.2,   -4.6,   -4.9,   -4.9,   -5.2,   -5.6,   -6.1,   -6.6
2010/10/27 14:40,  999.0,    5.8,    6.5,    7.0,    6.8,    6.9,    7.1,    7.1,    7.4,    7.4,    7.4,    7.1,    6.2,    5.6,    5.8,    5.4,    5.6,    5.5,    5.8,    5.5,    4.7,    4.8,    4.2,    4.5,    3.7,    3.5,    4.7,    5.2,    3.9,    4.3,  999.0,    2.6,    1.5,    0.4,   -0.2,   -0.1,   -0.5,   -0.3,  999.0,  999.0,  999.0,  999.0,  999.0,   -2.1,   -1.8,   -2.3,  999.0,  999.0,  999.0,  999.0,  999.0,   -4.0,   -4.3,   -4.9,   -5.5,  999.0,  999.0,  999.0,  999.0,  999.0,  999.0,  999.0,  999.0,  999.0,  999.0,  999.0,  999.0,  999.0,  999.0,   -5.3,   -5.0,   -4.6,   -4.6,   -4.3,   -4.5,   -5.6,   -6.6,   -7.3,   -6.5,   -5.7,   -5.3,   -4.8,   -4.3,   -4.0,   -3.5,   -3.0,   -3.1,   -3.6,   -3.8,   -4.4,   -4.4,   -4.4,   -4.4,   -4.6,   -4.6,   -4.6,   -4.6,   -4.4
2010/10/27 14:50,  999.0,    6.0,    6.3,    6.9,    6.2,    6.7,    6.8,    7.4,    7.3,    7.3,    7.1,    7.3,    6.2,    5.6,    5.3,    4.9,    5.3,    5.9,    6.4,    5.6,    4.7,    4.6,    5.2,    4.4,    3.6,    4.3,    4.7,    4.5,    4.3,  999.0,  999.0,  999.0,    1.0,    0.2,  999.0,   -0.1,  999.0,   -0.3,  999.0,  999.0,  999.0,  999.0,  999.0,  999.0,  999.0,  999.0,  999.0,  999.0,  999.0,  999.0,   -4.1,   -4.0,   -4.1,   -4.3,  999.0,  999.0,  999.0,  999.0,  999.0,  999.0,  999.0,  999.0,  999.0,   -3.6,  999.0,  999.0,   -4.1,   -4.0,   -4.2,   -4.7,   -4.6,   -4.3,   -3.9,   -4.1,   -4.3,   -4.4,   -4.6,   -5.0,   -4.8,   -4.4,   -3.9,   -3.0,   -2.5,   -2.3,   -2.8,   -3.3,   -3.7,   -4.0,   -4.1,   -3.9,   -3.9,   -3.9,   -4.0,   -4.3,   -4.2,   -4.2,   -3.7,   -3.3
2010/10/27 15:00,  999.0,    6.7,    6.5,    7.3,    7.6,  999.0,    8.6,    7.9,    7.5,    7.5,    7.5,    7.4,    6.9,    5.4,    4.9,    5.1,    5.4,    6.2,    6.3,    5.5,    4.8,    5.0,    4.9,  999.0,  999.0,  999.0,    4.6,    5.0,    3.9,    3.9,  999.0,  999.0,  999.0,  999.0,  999.0,   -3.9,   -3.2,   -4.1,   -3.6,   -3.4,   -3.4,   -3.4,   -3.5,   -3.5,   -3.7,   -4.4,   -4.8,   -4.8,   -4.6,   -3.9,   -4.0,   -4.4,  999.0,   -5.8,  999.0,  999.0,  999.0,  999.0,  999.0,  999.0,  999.0,   -3.5,  999.0,   -4.2,   -3.9,   -3.9,   -4.0,   -3.7,   -3.3,   -3.6,   -3.9,   -4.0,   -3.8,   -3.3,   -2.9,   -2.7,   -3.2,   -3.5,   -3.2,   -2.6,   -1.8,   -1.4,   -1.7,   -2.2,   -2.8,   -3.2,   -3.5,   -3.6,   -3.4,   -3.3,   -3.3,   -3.7,   -4.0,   -3.8,   -3.7,   -3.2,   -3.1,   -2.9
2010/10/27 15:10,  999.0,    6.4,    6.7,    7.0,    7.2,    7.9,    8.3,    7.6,    7.4,    7.6,    7.6,    7.4,    6.7,    6.1,    5.5,    5.4,    6.2,    5.8,    5.9,    5.4,    4.4,    4.6,    4.3,    3.6,  999.0,  999.0,  999.0,  999.0,  999.0,  999.0,  999.0,  999.0,  999.0,  999.0,  999.0,  999.0,   -6.8,   -7.4,   -7.9,   -8.3,   -8.2,   -9.4,   -9.7,   -9.2,   -8.2,   -8.1,   -7.2,  999.0,   -5.7,   -5.4,   -5.1,   -5.0,   -5.0,   -4.6,   -3.6,   -3.4,   -3.0,   -3.2,   -2.9,   -2.3,   -2.2,   -2.7,   -3.1,   -3.2,   -3.0,   -2.7,   -2.6,   -2.3,   -2.1,   -1.8,   -1.9,   -2.3,   -2.3,   -1.4,   -1.1,   -1.8,   -1.8,   -1.5,   -1.5,   -1.4,   -1.5,   -1.6,   -1.8,   -1.7,   -1.7,   -2.3,   -2.7,   -3.2,   -4.0,   -4.3,   -4.4,   -4.3,   -4.1,   -3.9,   -3.4,   -2.9,   -2.5,   -2.5
2010/10/27 15:20,  999.0,  999.0,    4.9,    6.6,    7.2,    5.1,    6.9,    6.4,    4.9,    4.1,    4.7,    4.3,  999.0,    4.2,  999.0,  999.0,  999.0,  999.0,  999.0,  999.0,  999.0,  999.0,  999.0,  999.0,    4.8,    4.6,    5.0,    5.2,    4.9,    4.7,    4.1,    2.5,    1.7,    1.5,    1.0,    0.7,   -0.1,  999.0,   -0.8,   -0.7,   -1.8,   -2.3,  999.0,  999.0,  999.0,  999.0,  999.0,  999.0,  999.0,  999.0,   -3.6,   -3.6,   -3.3,   -2.9,   -2.8,   -2.6,   -2.4,   -1.8,   -1.6,   -1.6,   -2.0,   -2.4,   -2.3,   -2.0,   -1.7,   -1.4,   -1.4,   -1.3,   -1.3,   -1.3,   -1.2,   -1.2,   -0.9,   -0.7,   -1.2,   -1.0,   -0.6,   -0.4,   -0.9,   -1.8,   -1.9,   -2.0,   -2.3,   -2.8,   -3.0,   -3.0,   -3.2,   -3.3,   -3.3,   -3.2,   -2.9,   -2.7,   -2.7,   -2.7,   -2.8,   -2.6,   -2.7,   -2.6
2010/10/27 15:30,    5.6,    5.2,    6.3,    6.5,    7.5,    8.5,    8.6,    7.7,    7.1,    7.4,    7.6,    7.5,    7.0,    6.7,    5.9,    5.6,    5.9,    6.8,    6.5,    5.7,    4.9,    4.7,    4.5,    4.7,    5.6,    5.4,    5.6,    5.8,    6.0,    5.7,    5.3,    4.0,    3.2,    3.2,    2.8,    2.8,    1.6,    0.6,    0.7,    0.6,    0.5,   -0.5,   -0.9,   -0.6,   -2.3,  999.0,   -3.3,  999.0,  999.0,   -2.9,   -2.9,   -2.9,   -2.6,   -2.5,   -2.5,   -2.4,   -2.1,   -1.8,   -1.6,   -1.7,   -1.9,   -2.0,   -1.8,   -1.4,   -0.9,   -0.3,    0.2,    0.4,    0.3,    0.2,   -0.1,   -0.2,   -0.1,   -0.1,   -0.1,   -0.1,   -0.5,   -1.5,   -1.9,   -2.1,   -2.2,   -1.8,   -1.6,   -1.3,   -1.3,   -1.5,   -1.8,   -1.9,   -1.9,   -2.0,   -2.0,   -2.4,   -2.9,   -3.3,   -3.6,   -3.8,   -4.1,   -4.3
2010/10/27 15:40,    5.3,    6.3,    7.0,    8.0,    8.9,    8.7,    8.8,    8.3,    7.9,    8.0,    8.1,    7.8,    7.3,    6.8,    4.9,    4.9,    7.2,    5.8,    7.6,    7.2,    3.5,    3.4,    3.5,    4.1,    4.3,    4.5,    4.8,    4.6,    5.1,    5.2,    4.4,    2.8,    2.4,    2.1,    1.8,    2.0,    0.9,    0.4,   -0.0,    0.0,   -0.6,   -1.9,   -2.1,   -2.8,   -3.2,   -3.5,  999.0,  999.0,   -2.9,   -2.3,   -2.4,   -2.0,   -1.6,   -1.4,   -1.2,   -1.2,   -1.4,   -1.5,   -1.3,   -1.1,   -0.9,   -0.7,   -0.6,   -0.4,   -0.1,    0.3,    0.4,    0.7,    0.8,    0.8,    0.4,   -0.0,   -0.2,   -0.3,   -0.2,   -0.5,   -1.2,   -1.9,   -2.3,   -2.5,   -2.4,   -2.5,   -2.5,   -2.7,   -3.0,   -3.1,   -3.2,   -3.4,   -3.4,   -3.3,   -3.3,   -3.3,   -3.3,   -3.4,   -3.5,   -3.7,   -4.0,   -4.4
2010/10/27 15:50,    6.2,    6.0,    7.0,    7.9,    9.0,    8.9,    8.4,    8.1,    7.4,    6.6,    6.8,    6.7,    6.8,    6.9,    6.8,    5.1,    6.7,    7.5,    7.3,    6.5,    5.6,    4.5,    5.1,    4.5,    4.5,    5.5,    5.6,    5.4,    5.2,    4.9,    4.1,    3.4,    1.8,    1.3,    0.4,    0.6,   -0.1,   -0.9,   -1.7,   -1.9,   -1.8,   -3.0,   -3.2,   -3.9,   -3.6,   -2.3,  999.0,  999.0,  999.0,   -2.5,   -2.5,   -2.1,   -1.7,   -1.2,   -1.0,   -1.0,   -1.2,   -1.0,   -0.8,   -0.3,   -0.1,    0.1,    0.6,    1.0,    1.2,    1.4,    1.6,    1.6,    1.2,    0.9,    0.5,    0.3,    0.2,   -0.1,   -0.6,   -1.0,   -1.3,   -1.5,   -1.6,   -1.7,   -1.9,   -2.0,   -2.1,   -2.4,   -2.6,   -2.6,   -2.2,   -1.8,   -1.6,   -1.2,   -1.5,   -1.3,   -1.4,   -1.2,   -1.1,   -1.6,   -2.1,   -2.5
2010/10/27 16:00,    5.5,    6.3,    7.6,    8.4,    9.1,    9.3,    9.0,    8.3,    7.6,    7.1,    6.7,    6.7,    6.4,    6.6,    5.6,    5.0,    4.9,    5.2,    4.3,    3.7,    3.3,    2.4,    3.5,    3.3,    3.4,    4.1,    4.3,    4.4,    4.1,    4.2,    3.3,    1.9,    1.5,    1.0,   -0.5,   -0.1,   -0.1,   -0.5,   -0.7,   -1.1,   -1.4,   -2.5,   -3.6,   -2.8,   -2.7,  999.0,  999.0,  999.0,   -2.0,   -1.8,   -1.6,   -1.7,   -1.6,   -1.4,   -1.1,   -1.0,   -0.9,   -0.6,   -0.5,    0.2,    0.5,    0.7,    0.9,    0.9,    0.7,    0.7,    0.6,    0.6,    0.3,   -0.0,   -0.1,   -0.4,   -0.5,   -0.6,   -0.8,   -1.1,   -1.3,   -1.5,   -1.3,   -1.2,   -1.0,   -1.1,   -1.3,   -0.3,   -0.1,    0.2,   -0.1,   -0.3,   -0.6,   -1.1,   -2.9,   -3.9,   -4.4,   -5.0,   -4.4,   -5.0,   -5.3,   -5.6
2010/10/27 16:10,    5.2,    5.7,    6.9,    7.8,    8.6,    8.9,    8.5,    8.3,    7.5,    7.0,    6.4,    6.8,    7.2,    7.8,    7.7,    7.2,    7.0,    7.7,    7.4,    6.4,    5.3,    3.9,    4.3,    4.5,    5.6,    5.0,    4.2,    3.8,    3.0,    2.2,    1.3,    1.3,    0.2,   -0.4,   -1.3,   -1.2,   -1.2,   -1.6,   -2.0,   -3.1,   -3.7,   -4.3,   -5.4,   -3.9,  999.0,  999.0,  999.0,  999.0,   -1.6,   -1.2,   -1.1,   -1.0,   -1.3,   -0.9,   -0.7,   -0.6,   -0.7,   -0.7,   -0.5,   -0.7,   -0.7,   -0.6,   -0.6,   -0.6,   -0.7,    0.1,   -0.4,   -0.8,   -1.7,   -1.2,   -1.4,   -1.5,   -1.5,   -1.7,   -1.9,   -2.5,   -2.4,   -3.0,   -3.3,   -3.4,   -3.5,   -3.3,   -4.2,   -3.9,   -3.5,   -3.5,   -3.6,   -3.7,   -3.9,   -4.1,   -4.1,   -4.3,   -4.2,   -4.4,   -4.7,   -5.4,   -5.6,   -5.6
2010/10/27 16:20,  999.0,    5.6,    6.7,    7.6,    8.3,    8.2,    8.6,    8.9,    4.1,    2.8,    8.1,    6.8,    7.4,    7.6,    7.4,    7.1,    6.7,    6.6,    5.9,    4.8,    4.0,    3.5,    4.0,    4.3,    4.7,    4.9,    4.1,    4.1,    4.1,    3.8,    3.5,    2.8,    1.8,    1.4,    0.4,    0.3,   -0.0,   -0.4,   -1.0,   -2.1,  999.0,  999.0,  999.0,  999.0,   -1.7,  999.0,  999.0,   -2.1,   -2.1,   -2.4,   -2.0,   -1.8,   -1.8,   -1.7,   -1.7,   -1.8,   -1.9,   -2.0,   -1.8,   -2.0,   -2.3,   -2.3,   -2.3,   -2.4,   -2.5,   -2.5,   -2.5,   -2.7,   -3.0,   -3.3,   -3.3,   -3.6,   -4.0,   -4.3,   -4.5,   -4.7,   -4.7,   -4.6,   -4.4,   -4.1,   -3.7,   -3.6,   -3.3,   -3.5,   -3.7,   -3.9,   -4.2,   -4.4,   -4.4,   -4.4,   -4.3,   -4.3,   -4.4,   -5.0,   -5.7,   -6.0,   -6.2,   -6.4
2010/10/27 16:30,  999.0,    5.9,    6.5,   -4.8,   -4.1,  -10.0,  -27.6,  -26.9,  -26.5,  -26.2,  -26.8,  -26.7,  -26.8,  -26.4,  -18.3,  -19.4,  -13.8,  -14.8,  -27.3,  -12.4,  999.0,  999.0,  -29.2,  -11.4,    5.2,  999.0,    4.3,    4.1,    4.2,    3.7,    3.8,    3.0,    2.5,    2.4,    1.9,    1.3,    0.6,   -0.0,   -0.5,  999.0,  999.0,  999.0,  999.0,  999.0,  999.0,  999.0,  999.0,  999.0,   -2.0,   -1.9,   -1.6,   -1.5,   -1.8,   -2.1,   -2.1,   -2.0,   -1.9,   -1.9,   -2.0,   -1.9,   -1.8,   -1.6,   -1.8,   -1.7,   -1.9,   -2.6,   -3.0,   -3.4,   -4.1,   -4.2,   -4.2,   -4.1,   -3.9,   -3.9,   -4.0,   -4.1,   -3.6,   -3.5,   -3.7,   -4.4,   -4.1,   -4.2,   -4.2,   -4.2,   -4.0,   -3.8,   -3.9,   -3.9,   -4.1,   -4.4,   -4.7,   -5.1,   -5.8,   -6.0,   -6.3,   -6.6,   -7.7,  999.0
2010/10/27 16:40,  999.0,    6.3,  -11.1,  -14.2,  -13.4,  -12.9,  -17.2,  -16.9,  -12.3,  -13.0,   -3.8,   -9.8,   -9.9,   -8.9,  -10.0,  999.0,  999.0,  999.0,    5.3,    4.7,    3.7,    4.4,    5.1,    5.5,    5.6,    4.9,    4.5,    3.4,    3.3,    3.0,    2.8,    2.3,    1.8,    1.6,    1.1,    0.4,   -0.0,   -0.6,  999.0,  999.0,   -1.7,  999.0,  999.0,   -1.6,   -1.0,  999.0,  999.0,   -1.7,   -1.9,   -1.6,   -1.4,   -1.5,   -1.8,   -1.8,   -1.8,   -1.8,   -2.5,   -3.1,   -3.6,   -3.6,   -3.8,   -4.0,   -4.2,   -4.5,   -4.7,   -4.7,   -4.4,   -4.2,   -4.3,   -4.3,   -4.3,   -4.3,   -4.1,   -4.0,   -3.8,   -3.4,   -3.0,   -2.8,   -2.7,   -2.8,   -2.7,   -2.7,   -2.8,   -2.8,   -2.8,   -2.9,   -3.0,   -3.1,   -3.6,   -4.1,   -4.4,   -4.7,   -5.0,   -6.0,  999.0,  999.0,  999.0,  999.0
2010/10/27 16:50,    5.0,    3.7,    4.6,    5.6,    7.0,    7.7,    7.8,    1.6,    4.2,   -0.3,    1.1,    2.6,    1.3,   -0.8,    7.4,    1.7,    7.3,    7.1,    6.6,    5.2,    4.5,    5.6,    6.2,    5.9,    5.5,    5.1,    4.4,    3.9,    3.8,    3.5,    3.4,    2.9,    2.3,    1.8,    1.4,    0.9,   -0.2,   -0.7,   -1.9,  999.0,   -2.9,   -1.8,   -1.9,   -1.4,   -1.6,  999.0,  999.0,  999.0,   -0.8,   -0.6,   -0.4,   -0.4,   -0.8,   -2.2,   -3.5,   -4.4,   -4.9,   -5.1,   -5.4,   -5.5,   -5.4,   -5.4,   -5.4,   -5.5,   -5.4,   -5.1,   -4.7,   -4.3,   -4.6,   -4.8,   -4.9,   -4.6,   -4.2,   -3.7,   -3.1,   -2.6,   -2.5,   -2.5,   -2.8,   -3.0,   -3.2,   -3.4,   -3.6,   -3.4,   -3.4,   -3.2,   -2.8,   -2.7,  999.0,  999.0,  999.0,  999.0,  999.0,  999.0,  999.0,  999.0,  999.0,  999.0
2010/10/27 17:00,    4.2,    5.0,    4.8,    6.0,    7.2,    7.6,    8.3,    8.4,    8.5,    8.5,    8.0,    7.9,    8.0,    8.1,    7.8,    7.8,    8.2,    7.7,    7.0,    5.9,    5.9,    7.1,    7.0,    6.1,    5.8,    5.3,    4.5,    4.0,    3.5,    3.2,    3.4,    2.7,    2.5,    2.3,    1.9,    0.8,    0.3,    0.2,   -0.8,   -1.9,   -2.2,   -1.3,   -0.7,   -1.0,  999.0,  999.0,  999.0,  999.0,   -0.9,   -0.3,   -0.4,   -0.2,   -1.1,   -2.5,   -3.8,   -4.5,   -4.8,   -5.1,   -5.0,   -5.0,   -5.1,   -5.1,   -5.1,   -5.1,   -5.0,   -4.8,   -4.5,   -4.0,   -4.0,   -4.2,   -4.4,   -4.4,   -4.2,   -4.0,   -3.7,   -3.5,   -3.5,   -3.5,   -3.5,   -3.6,   -3.5,   -3.4,   -3.6,   -3.6,   -3.7,   -3.8,   -3.3,  999.0,  999.0,  999.0,  999.0,  999.0,  999.0,  999.0,  999.0,  999.0,  999.0,  999.0
2010/10/27 17:10,    3.3,    4.0,    4.1,    4.9,    5.8,    7.3,    7.6,    7.8,    7.8,    7.5,    7.5,    8.0,    8.1,    8.5,    8.3,    8.5,    8.3,    7.8,    7.6,    7.5,    7.7,    8.1,    8.1,    7.9,    7.6,    6.0,    5.0,    5.4,    5.0,    4.0,    3.4,    2.7,    2.8,    2.3,    2.3,    1.8,    1.8,    1.7,    1.2,    0.2,   -0.7,   -0.4,   -0.7,    0.7,    0.7,    0.0,  999.0,   -0.8,   -0.7,   -0.7,   -0.2,   -0.0,   -0.7,   -1.5,   -2.6,   -3.1,   -3.6,   -4.0,   -4.0,   -4.0,   -4.1,   -4.1,   -4.3,   -4.4,   -4.3,   -3.9,   -3.1,   -2.7,   -2.9,   -3.1,   -3.3,   -3.3,   -3.5,   -3.7,   -3.8,   -3.7,   -3.7,   -3.6,   -3.4,   -3.3,   -3.4,   -3.2,   -3.1,   -3.1,   -3.3,   -3.3,   -3.1,   -2.9,   -2.4,   -2.6,   -2.9,  999.0,  999.0,  999.0,  999.0,  999.0,  999.0,  999.0
2010/10/27 17:20,  999.0,    3.6,    3.0,    5.3,    6.3,    7.2,    7.4,    4.7,    5.0,    5.3,    6.8,    6.6,    6.3,    8.4,  999.0,    9.1,    9.9,    6.3,    6.7,    7.0,    7.0,    6.6,  999.0,    6.0,  999.0,  999.0,    4.4,  999.0,  999.0,  999.0,  999.0,  999.0,  999.0,  999.0,    4.2,    3.6,    2.5,    1.9,    0.4,   -1.0,   -0.6,   -0.7,    0.4,    0.2,  999.0,    1.7,    1.8,  999.0,  999.0,    0.8,    0.6,    0.1,    0.5,   -0.1,   -1.0,   -1.7,   -2.7,   -2.6,   -2.9,   -3.3,   -3.3,   -3.5,   -2.8,   -2.2,   -1.6,   -1.8,   -2.1,   -2.4,   -2.5,   -2.5,   -2.4,   -2.4,   -2.4,   -2.5,   -2.6,   -2.8,   -2.7,   -2.6,   -2.4,   -2.4,   -2.4,   -2.4,   -2.3,   -2.4,   -2.5,   -2.5,   -2.5,   -3.0,   -3.1,  999.0,  999.0,  999.0,  999.0,  999.0,  999.0,  999.0,  999.0,  999.0
2010/10/27 17:30,  999.0,  999.0,  999.0,  999.0,  999.0,   -3.7,  -11.2,  -13.0,  -15.2,   -9.9,   -0.2,  999.0,  999.0,  999.0,  999.0,  999.0,  999.0,  999.0,   10.1,  999.0,  999.0,  999.0,  999.0,  999.0,    2.1,  999.0,  999.0,    2.7,    0.8,  999.0,  999.0,  999.0,  999.0,  999.0,  999.0,  999.0,  999.0,  999.0,  999.0,  999.0,  999.0,  999.0,    0.4,  999.0,  999.0,  999.0,  999.0,  999.0,  999.0,   -1.8,   -1.5,  999.0,  999.0,   -1.6,   -1.7,   -1.8,   -1.5,   -1.4,   -1.5,   -1.7,   -1.8,   -1.9,   -1.9,   -1.6,   -1.2,   -0.6,   -0.4,   -0.6,   -1.2,   -1.2,   -1.3,   -1.3,   -1.4,   -1.3,   -1.4,   -1.6,   -1.7,   -1.6,   -1.5,   -1.4,   -1.3,   -1.3,   -1.6,   -1.9,   -1.6,   -1.6,   -2.2,  999.0,  999.0,  999.0,  999.0,  999.0,  999.0,  999.0,  999.0,  999.0,  999.0,  999.0
2010/10/27 17:40,  999.0,  999.0,  999.0,  999.0,  999.0,    8.1,    4.9,    2.9,    0.6,   -1.6,  999.0,   -4.0,   -3.0,   -1.4,    0.5,    0.4,    0.6,    3.2,    3.0,    0.2,    3.9,    6.6,    5.7,    3.1,    5.7,    3.4,    3.5,    1.9,    0.1,   -0.9,    2.0,    1.9,    1.5,   -1.9,   -3.3,   -4.8,   -4.8,   -5.1,   -2.4,    3.6,   -4.4,   -2.7,   -0.6,  999.0,   -0.8,   -1.7,  999.0,    3.2,   -3.6,    0.2,   -1.1,    0.9,    1.7,    2.2,    2.6,    1.4,    1.0,  999.0,    1.4,  999.0,    1.2,  999.0,    0.7,    0.7,    0.7,    0.5,    0.4,    0.2,   -0.6,   -0.7,   -0.7,   -0.7,   -0.9,   -1.0,   -0.9,   -1.0,   -1.2,   -1.5,   -1.6,   -1.2,   -0.9,   -1.4,   -1.6,   -0.8,  999.0,  999.0,  999.0,  999.0,  999.0,  999.0,  999.0,  999.0,  999.0,  999.0,  999.0,  999.0,  999.0,  999.0
2010/10/27 17:50,  999.0,  999.0,  -22.7,  -22.7,  -22.5,  -22.5,  -21.2,    3.6,    1.5,   -1.1,   -0.7,  999.0,  999.0,  999.0,  999.0,  999.0,  999.0,    7.5,    5.5,    2.9,    3.8,    4.9,    0.4,  999.0,    1.9,   -1.1,    0.9,   -0.8,  999.0,  999.0,   -1.2,  999.0,   -0.3,   -2.1,   -3.0,   -1.5,  999.0,   -4.6,   -7.0,   -7.8,  999.0,  -10.3,  999.0,   -7.7,   -5.6,   -5.3,   -5.3,  999.0,   -2.3,  999.0,    0.8,    1.2,    0.4,   -0.6,    1.2,   -0.1,   -1.5,   -1.9,   -2.3,   -1.0,   -1.1,   -1.4,   -1.7,   -1.5,   -2.0,   -1.9,   -2.1,   -1.8,   -1.9,   -2.3,   -2.5,   -2.6,   -1.9,   -2.8,  999.0,   -1.2,  999.0,  999.0,  999.0,    1.0,  999.0,  999.0,  999.0,  999.0,  999.0,  999.0,  999.0,  999.0,  999.0,  999.0,  999.0,  999.0,  999.0,  999.0,  999.0,  999.0,  999.0,  999.0
2010/10/27 18:00,  999.0,  999.0,  999.0,  -12.7,  -21.2,  -20.2,  -21.6,  999.0,   -9.7,   -4.2,   -7.9,   -8.4,    3.2,   -2.5,    2.3,    2.7,    2.1,    2.1,    2.4,   10.7,   10.6,  999.0,    9.6,   10.5,   10.1,   10.2,    9.9,    9.7,    9.1,    8.0,    8.4,    9.3,    8.0,    8.7,    4.5,    4.9,    4.0,    3.4,    2.3,    0.9,   -2.1,   -0.4,   -0.0,   -1.8,  999.0,   -4.9,   -3.3,    0.2,    0.9,   -0.0,   -0.6,    0.1,    1.0,    0.8,    1.4,    1.3,    1.1,    0.9,    0.5,   -0.2,   -1.1,   -2.5,   -2.9,   -3.9,   -3.7,   -3.7,   -4.1,   -4.8,   -4.2,   -3.5,   -4.5,   -3.2,   -4.2,   -6.8,   -4.8,  999.0,   -2.9,  999.0,  999.0,  999.0,  999.0,   -0.2,  999.0,   -1.5,  999.0,  999.0,  999.0,  999.0,  999.0,  999.0,  999.0,  999.0,  999.0,  999.0,  999.0,  999.0,  999.0,  999.0
2010/10/27 18:10,  999.0,    8.9,  999.0,  999.0,  -22.2,  -23.0,  -22.9,  -21.8,  -24.0,  -23.9,   -8.5,   -4.7,   -5.7,   -0.9,    6.6,  999.0,  999.0,  -24.4,   -8.7,  -14.6,  -18.1,  -18.1,  -18.3,  -18.4,  -18.7,  -18.7,  -19.7,  -25.6,  -25.7,  -26.8,  -26.2,  -25.7,  -26.7,  -27.0,  -25.4,  -13.7,  999.0,  999.0,    8.6,    9.2,    8.9,    9.6,    9.4,   11.0,   11.1,   11.2,  999.0,   10.4,    8.9,    8.8,    7.4,    5.9,    5.5,    4.2,    5.6,    4.9,    1.6,    3.4,    3.9,    2.3,    2.1,    1.1,   -0.6,   -1.4,   -1.7,   -1.7,   -1.0,   -3.6,    0.6,  999.0,    1.0,   -0.1,    0.1,   -0.2,  999.0,  999.0,  999.0,  999.0,  999.0,  999.0,   -1.1,    0.5,   -0.7,   -1.6,   -1.8,  999.0,   -0.8,  999.0,  999.0,  999.0,  999.0,   -0.9,  999.0,  999.0,  999.0,  999.0,  999.0,  999.0
2010/10/27 18:20,    6.5,  -10.0,    9.2,  999.0,   -7.7,   -7.3,   -7.0,   -7.6,  999.0,   -4.9,   -5.1,   -5.3,   -8.1,   -8.4,    8.9,   10.8,    8.7,    8.8,    9.0,   -3.2,   -8.6,  999.0,   -8.7,  999.0,  -15.1,  -14.7,  -14.8,  -16.7,   -7.4,  999.0,  999.0,  999.0,  999.0,  999.0,  999.0,  999.0,    6.1,    6.5,    6.2,    6.3,    6.3,    6.6,    6.3,    6.9,   -9.2,    7.5,  999.0,    5.8,  999.0,  999.0,    4.8,    3.9,    4.6,    4.4,    4.9,    6.1,    6.4,    6.3,    6.8,    6.2,    6.2,    5.9,  999.0,  999.0,  999.0,    2.4,    1.2,  999.0,    0.6,   -0.9,  999.0,  999.0,  999.0,  999.0,   -6.0,  999.0,  999.0,  999.0,   -8.9,   -4.4,  999.0,   -2.3,   -3.5,  999.0,  999.0,  999.0,    1.3,    0.9,    0.0,    2.4,    3.2,    3.4,    0.6,    1.2,    0.1,  999.0,  999.0,    1.0
2010/10/27 18:30,    5.6,    6.7,    7.1,    7.4,    7.8,    7.9,    8.2,    8.8,    9.2,    9.9,    8.8,    8.7,    8.9,    9.4,   10.3,   10.4,   10.1,   10.7,   10.4,   10.3,   10.5,   10.9,   10.5,   10.7,   10.9,   11.3,   11.0,   11.3,  999.0,  999.0,  999.0,    1.7,    3.9,   12.2,   10.6,    9.5,    9.3,    9.8,    9.7,    9.7,    9.6,    9.0,    7.2,    5.9,    6.7,    5.5,    4.7,    5.1,    3.2,    4.4,    4.5,    3.8,    3.5,    3.0,    2.1,    1.3,    0.8,    0.1,   -0.9,   -0.6,   -0.1,    0.6,   -0.6,    0.8,    1.0,    1.6,    0.8,    1.3,    2.1,    2.0,    1.2,    0.7,   -0.1,   -0.8,   -0.6,   -0.2,   -0.2,   -0.8,   -0.7,   -1.2,   -0.8,    2.1,  999.0,    3.7,    1.5,    1.8,    1.6,    1.8,    1.6,    1.3,    2.9,    1.8,    0.5,  999.0,    3.3,  999.0,  999.0,  999.0
2010/10/27 18:40,    5.0,    5.7,    6.1,    6.1,  -10.2,   -9.8,   -4.7,   -0.8,   -0.3,   -2.6,   -2.3,  999.0,  999.0,  -23.6,  -23.7,  -23.6,  -24.4,  -24.5,  -25.8,  999.0,  -25.9,  999.0,  -25.8,  -26.4,  999.0,  -24.8,  -22.4,  -21.9,  -20.1,  -21.3,  -21.4,  -22.2,  -23.0,  -23.0,  -23.2,  999.0,  999.0,   -9.9,  -10.1,   -3.7,    0.2,    7.6,  999.0,  999.0,    5.6,    5.8,    5.1,    4.3,    3.0,    1.9,    1.5,    1.5,    1.5,    1.6,    1.3,    0.8,    1.0,    0.7,    0.3,    0.9,    0.9,    0.4,    0.1,   -0.3,   -0.4,   -0.0,   -4.1,  999.0,   -1.5,   -1.1,   -1.3,   -1.6,   -2.0,   -3.5,  999.0,   -7.9,  999.0,  -11.5,  -11.9,  999.0,  -13.5,   -7.9,  999.0,  999.0,  999.0,  999.0,  999.0,   -5.4,   -5.2,   -6.0,   -6.2,   -5.6,   -4.7,   -4.5,   -4.6,   -3.6,  999.0,  999.0
2010/10/27 18:50,    6.1,    5.7,    4.9,    5.3,    5.4,  999.0,  999.0,    5.7,  -15.5,   -6.5,  -29.3,  -17.1,  -27.5,  -26.5,  -25.2,  -25.4,  -25.7,  -25.7,  -25.4,  -24.8,  -24.7,  -24.8,  -25.1,  -24.6,  -25.1,  -24.4,  -22.9,  -23.2,  -22.2,  -21.8,  -22.1,  -23.5,  -24.0,  -24.3,  -24.6,  -24.8,  -25.1,  -25.5,  -25.5,  -25.8,  -27.1,  -27.3,  999.0,  999.0,  999.0,  999.0,  999.0,  999.0,    7.1,    5.5,    4.9,    3.7,    3.1,    2.4,    2.4,    2.3,    0.3,    0.5,  999.0,    0.9,    0.3,  999.0,   -2.2,   -1.9,   -2.0,   -2.1,   -2.1,   -2.3,   -2.1,   -2.2,   -2.6,   -3.4,   -3.1,   -2.8,   -3.2,   -3.2,   -3.4,   -2.1,   -2.9,   -2.4,   -1.7,   -2.1,   -0.5,   -1.8,   -1.9,   -1.8,   -2.1,   -2.2,   -4.9,   -2.7,   -1.6,   -0.9,   -2.0,   -1.4,   -1.1,   -1.6,   -1.7,   -1.7
2010/10/27 19:00,    5.3,    6.1,    5.9,    6.2,    5.8,    5.3,    5.1,    5.4,    5.6,    5.7,    5.8,    5.6,    6.1,    7.3,    7.7,    8.7,    9.4,  999.0,  999.0,   -4.5,   -8.1,   -8.1,  -11.4,   -8.1,   -5.1,   -2.8,   -3.0,   -2.1,   -7.1,  -15.5,  -10.3,  -10.9,   -7.7,   -7.7,    2.1,    1.6,    0.8,   -8.8,   -5.4,   -5.1,   -8.5,   -5.1,   -0.2,    7.5,    6.4,    6.5,    6.2,    6.7,    6.3,    6.3,    6.6,    6.7,    6.7,    6.5,    6.4,    5.8,    4.9,    4.2,    3.9,    3.8,    2.8,    1.7,    0.5,   -0.4,   -0.9,   -1.3,   -1.8,   -1.8,   -1.9,   -1.7,   -2.3,   -3.1,   -3.2,   -2.9,   -3.3,   -3.3,   -4.5,   -4.4,   -4.7,   -5.1,   -5.0,   -5.7,   -6.6,   -6.9,   -7.5,   -7.9,   -7.9,   -8.6,   -6.5,   -7.1,   -7.3,   -6.2,   -6.0,   -4.7,   -5.5,   -5.1,  999.0,  999.0
2010/10/27 19:10,    5.4,    6.6,    7.3,    8.1,    8.6,    8.0,    7.2,    6.5,    6.2,    5.9,    5.6,    5.1,    5.5,    6.0,    6.3,    7.4,    7.9,    8.3,    8.9,    9.2,    9.5,    8.7,    8.0,    8.2,    7.6,    8.0,    7.6,    7.7,    8.5,    8.9,    6.2,    5.7,    6.0,    5.9,    6.2,    6.2,    8.0,    5.7,    5.9,    3.4,    4.1,    1.7,    3.1,    4.8,    6.2,    5.9,    5.9,    5.7,    5.2,    5.3,    5.5,    5.7,    5.7,    6.5,    6.5,    6.6,    6.3,    5.6,    5.1,    4.1,    2.5,    1.0,    0.1,   -0.8,   -1.2,   -2.9,   -2.0,   -2.2,  999.0,  999.0,   -4.2,   -4.5,   -4.5,   -3.4,   -3.7,   -4.0,   -4.2,   -4.8,   -4.9,   -5.6,   -5.4,   -5.4,   -5.7,   -6.1,   -6.4,   -6.5,   -6.6,   -6.1,   -5.1,   -6.6,   -6.6,   -6.4,  999.0,   -7.3,   -7.6,  999.0,  999.0,  999.0
2010/10/27 19:20,    4.2,    5.8,    7.1,    8.0,    9.2,    9.8,    9.1,    8.1,    7.3,    6.9,    5.6,    5.1,    5.3,    5.2,    6.4,    7.1,    6.4,    6.3,    7.3,    6.4,  999.0,    6.8,  999.0,  999.0,    3.0,    2.7,    3.1,    2.3,    1.0,    0.7,   -0.7,    0.4,    1.5,    2.0,    1.4,    2.0,    1.5,   -0.0,   -0.6,   -1.4,    0.4,  999.0,  999.0,    1.7,    2.9,    3.9,    4.7,    5.0,    5.1,    5.7,    6.2,    6.1,    6.3,    6.4,    6.1,    6.0,    5.7,    5.8,    5.0,    2.7,    0.1,   -0.8,   -1.5,   -2.3,   -3.0,   -3.5,   -4.0,   -4.5,   -3.9,   -2.7,   -2.1,   -1.7,   -1.7,   -2.0,   -2.4,   -3.0,   -3.5,   -3.5,   -2.5,   -1.6,  999.0,  999.0,   -2.8,   -3.0,  999.0,   -3.9,   -4.2,   -4.0,   -4.0,   -4.2,   -4.9,   -5.0,   -5.1,   -5.6,   -6.0,   -6.1,   -6.5,   -6.4
2010/10/27 19:30,    5.4,    7.3,    8.3,  999.0,  999.0,  999.0,    5.1,    4.5,   -2.4,   -3.3,   -4.5,    3.4,    3.7,    3.5,    4.7,    5.8,    6.2,    6.6,    5.0,    4.0,    4.1,    3.6,    1.4,    1.5,  999.0,   -2.2,    1.9,    0.5,  999.0,   -0.7,  999.0,   -0.7,  999.0,  999.0,   -9.1,   -8.6,  -13.0,   -8.6,    0.3,  999.0,  999.0,  999.0,    2.0,  999.0,  999.0,  999.0,    3.8,    4.4,    5.3,    5.8,    5.0,    4.4,    4.3,    4.2,    3.6,    2.4,    1.8,  999.0,  999.0,    0.7,   -0.8,   -2.2,   -2.9,   -2.6,   -2.4,   -2.4,   -2.4,   -2.4,   -2.3,   -2.3,   -2.3,   -2.6,   -2.3,   -2.3,   -2.3,   -1.8,   -1.6,   -1.0,   -1.4,   -1.2,   -1.4,   -1.3,   -0.6,   -0.8,   -0.5,   -1.0,   -1.0,   -1.7,   -2.3,   -3.7,   -4.0,   -4.3,   -4.7,   -5.0,   -5.6,   -6.3,   -6.5,   -6.9
2010/10/27 19:40,  999.0,  999.0,  999.0,  999.0,  999.0,  999.0,  999.0,  -25.4,  999.0,  -26.3,  -22.6,  -24.1,  -15.4,  -16.3,  -15.8,  -25.6,  -24.6,  -23.9,  -23.5,  -22.7,  -15.9,  -23.0,  -24.5,  -24.7,  -24.5,  -23.9,  -24.4,  999.0,  -26.1,  -25.2,  -25.1,  -24.9,  -24.5,  -24.1,  -24.7,  -25.3,  -26.4,  -25.3,  -25.2,  -24.4,  999.0,  999.0,  999.0,  999.0,    1.3,  999.0,    1.7,    1.5,    1.3,    1.0,    0.6,   -0.4,   -1.2,   -1.8,   -3.2,   -2.9,   -2.1,   -1.2,   -0.4,   -0.7,   -1.1,   -1.5,   -1.2,   -1.1,   -1.1,   -0.9,   -0.9,   -1.0,   -0.7,    0.1,   -0.2,   -0.6,   -2.0,   -2.7,   -3.0,   -3.2,   -3.2,   -3.5,   -3.5,   -3.5,   -3.3,   -3.2,   -3.0,   -3.0,   -2.5,   -2.6,   -2.7,   -2.8,   -3.3,   -3.5,   -4.1,   -4.9,   -5.5,   -5.9,   -6.2,   -6.4,   -6.8,   -7.3
2010/10/27 19:50,    5.1,    6.3,    7.7,   -0.3,    0.2,   -4.4,   -3.8,   -3.4,   -4.4,   -4.3,   -4.5,   -3.3,    7.1,    6.6,    6.6,    6.1,    5.8,    4.7,  999.0,    7.8,    8.9,    8.7,    7.0,    6.2,    6.0,    6.8,  999.0,    6.3,    2.8,    4.6,    0.8,    2.2,    0.1,   -1.5,   -0.8,    0.1,  -10.3,  -14.4,  -15.0,    1.0,    1.0,  999.0,  999.0,   -0.2,   -0.5,   -0.3,    0.4,    0.8,    1.3,    1.2,    0.3,   -1.6,   -2.6,   -3.8,   -4.4,   -4.3,   -3.9,   -3.5,   -3.4,   -3.0,   -2.8,   -2.5,   -2.5,   -2.4,   -2.0,   -2.2,   -2.2,   -1.8,   -1.2,   -0.9,   -1.2,   -1.4,   -1.6,   -2.0,   -2.2,   -2.7,   -3.1,   -3.5,   -3.6,   -3.6,   -3.5,   -3.3,   -3.4,   -3.5,   -3.9,   -4.5,   -5.1,   -5.5,   -6.0,   -6.0,   -5.8,   -5.6,   -5.4,   -5.2,   -5.2,   -5.2,   -5.9,   -6.4
2010/10/27 20:00,  -27.8,  999.0,  -28.2,  -27.7,  -26.7,  -25.8,  -25.1,  -25.5,  -26.7,  -26.3,  -25.3,  -25.6,  -25.7,  -25.7,  -25.0,  999.0,  999.0,  999.0,  999.0,  999.0,    7.9,  999.0,  999.0,    4.9,  999.0,  999.0,  999.0,    4.4,    4.1,    3.8,    4.3,    4.0,    4.3,    3.5,  999.0,  999.0,  -23.1,  -22.8,  -23.8,  999.0,  999.0,  999.0,  999.0,   -3.3,   -2.2,   -1.3,   -0.9,   -0.4,   -1.5,   -2.4,   -2.7,   -3.4,   -4.2,   -4.9,   -5.1,   -4.8,   -4.1,   -3.8,   -3.3,   -2.9,   -2.7,   -2.4,   -2.4,   -2.6,   -2.6,   -2.6,   -2.4,   -2.0,   -2.0,   -2.1,   -2.3,   -2.8,   -3.0,   -2.9,   -2.6,   -2.1,   -1.5,   -0.9,   -0.4,   -0.2,   -0.6,   -1.2,   -1.1,   -1.3,   -1.1,   -2.0,   -2.7,   -3.5,   -4.0,   -4.5,   -4.8,   -4.9,   -5.1,   -5.4,   -5.6,   -5.6,   -5.9,   -5.9
2010/10/27 20:10,  -28.2,  -28.6,  999.0,  -29.0,  -28.1,  -27.2,  -26.5,  -26.2,  -26.5,  -26.7,  -26.7,  -26.6,  -20.6,  -19.0,  -16.2,  -11.0,  999.0,  999.0,  -14.0,   -7.9,  -17.8,  -17.6,  -17.8,  -19.4,  -31.3,  -31.6,  999.0,  -10.1,  -19.2,  -21.6,  -19.7,   -8.0,  -22.8,  -19.5,  -23.6,  -24.8,  999.0,  999.0,   -0.6,  999.0,  999.0,  999.0,  999.0,  999.0,  999.0,   -4.9,   -4.1,   -3.4,   -3.5,   -4.1,   -4.5,   -4.7,   -4.8,   -4.6,   -4.5,   -4.2,   -3.8,   -3.5,   -2.9,   -2.1,   -1.7,   -1.9,   -2.0,   -2.1,   -2.2,   -2.0,   -1.8,   -1.7,   -1.5,   -1.2,   -1.0,   -0.9,   -1.1,   -1.2,   -1.1,   -0.9,   -0.8,   -0.9,   -0.9,   -0.8,   -0.4,   -0.4,   -0.7,   -0.7,   -0.8,   -1.0,   -1.4,   -2.3,   -2.9,   -3.4,   -3.8,   -4.2,   -4.5,   -4.7,   -4.6,   -4.5,   -4.4,   -4.2
2010/10/27 20:20,  999.0,  -29.9,  -20.4,  -21.0,  -20.1,  -20.6,  -20.8,  -22.5,  -21.1,  -29.5,  -29.7,  -29.7,  -30.0,  -30.5,  -30.8,  -31.5,  -31.7,  -32.2,  -32.5,  -33.2,  -32.8,  -32.5,  -32.1,  -33.5,  -33.4,  -33.8,  -34.4,  -34.2,  -34.1,  -34.2,  999.0,  -33.9,  -34.0,  -33.8,  -34.3,  999.0,  999.0,  999.0,  999.0,  999.0,  999.0,  999.0,  999.0,   -4.4,  999.0,   -4.3,   -4.3,   -4.3,   -4.7,   -5.2,   -5.2,   -5.1,   -4.8,   -4.5,   -4.1,   -3.4,   -2.7,   -2.5,   -2.5,   -2.1,   -1.6,   -1.3,   -1.4,   -1.5,   -1.5,   -1.6,   -1.6,   -1.6,   -1.4,   -1.0,   -0.6,   -0.4,   -0.4,   -0.3,    0.4,    0.9,    1.1,    1.2,    1.4,    1.4,    1.6,    1.3,    1.4,    0.9,    0.2,    0.5,   -0.1,   -0.6,   -0.8,   -0.7,   -0.6,   -0.7,   -0.9,   -1.4,   -1.7,   -1.8,   -2.1,   -2.0
2010/10/27 20:30,  -30.8,  -30.3,  -30.2,  -30.1,  -29.7,  -29.5,  -29.1,  -28.9,  -28.6,  -29.0,  -29.2,  -29.4,  -30.5,  -30.9,  -31.2,  -31.4,  -32.1,  -32.0,  -31.7,  -31.9,  -31.6,  -31.6,  -31.9,  -32.5,  -32.5,  -32.6,  -32.4,  -32.1,  -32.2,  -32.0,  -32.7,  -32.9,  -32.7,  -32.5,  -33.2,  -33.8,  -34.1,  999.0,  999.0,  999.0,  999.0,  999.0,  999.0,  999.0,  999.0,   -5.1,   -4.9,   -4.6,   -4.4,   -4.1,   -4.0,   -4.0,   -3.8,   -3.6,   -3.1,   -2.7,   -2.7,   -2.8,   -3.1,   -3.0,   -2.5,   -1.9,   -1.6,   -1.8,   -2.2,   -2.5,   -2.3,   -1.9,   -1.7,   -1.5,   -1.2,   -1.0,   -0.5,   -0.1,    0.9,    1.2,    1.2,    1.0,    0.9,    0.7,    0.5,    0.4,    0.4,    0.1,   -0.0,   -0.1,   -0.2,   -0.5,   -0.8,   -1.0,   -1.3,   -1.4,   -1.4,   -1.4,   -1.4,   -1.5,   -1.5,   -1.6
2010/10/27 20:40,  -31.6,  -30.2,  -30.0,  -29.3,  -28.9,  -28.8,  -28.9,  -29.0,  -28.9,  -28.5,  -28.2,  -28.4,  -29.5,  -30.0,  -30.0,  -29.7,  -29.7,  -29.5,  -29.7,  -29.9,  -30.1,  -30.8,  -31.0,  -31.4,  999.0,  999.0,  999.0,  999.0,  999.0,   -2.9,   -0.3,   -3.8,   -5.4,   -4.0,   -0.0,   -0.7,   -0.7,  999.0,  999.0,  999.0,  999.0,  999.0,   -4.9,   -5.1,   -6.0,   -5.9,   -6.0,   -5.9,   -6.0,   -5.9,   -5.8,   -5.7,   -5.5,   -5.3,   -4.8,   -4.4,   -4.1,   -3.9,   -3.6,   -3.4,   -3.3,   -3.3,   -3.1,   -2.8,   -2.7,   -3.0,   -3.1,   -2.8,   -2.4,   -1.7,   -0.8,   -0.0,    0.5,    0.6,    0.4,    0.2,   -0.1,   -0.6,   -1.8,   -2.8,   -3.2,   -4.3,   -4.9,   -5.4,   -5.3,   -5.2,   -5.2,   -5.1,   -4.8,   -4.5,   -4.4,   -4.3,   -4.3,   -4.0,   -3.8,   -3.5,   -3.2,   -3.2
2010/10/27 20:50,  999.0,  999.0,  -30.1,  -29.4,  -29.0,  -29.5,  -29.8,  -29.8,  -30.2,  -29.4,  -28.2,  -27.4,  -28.3,  -29.5,  -29.7,  -29.9,  -30.0,  -29.3,  -29.0,  -29.1,  -29.2,  -30.4,  -31.6,  999.0,  999.0,  999.0,  999.0,  999.0,  999.0,    0.6,   -0.3,    0.6,    1.4,    0.7,    0.0,   -0.5,   -1.3,  999.0,  999.0,  999.0,  999.0,   -4.5,   -5.2,   -5.4,   -6.1,   -6.2,   -6.4,   -6.2,   -6.3,   -6.4,   -6.5,   -6.7,   -6.9,   -7.1,   -7.1,   -6.6,   -6.3,   -6.0,   -5.6,   -4.9,   -4.2,   -3.8,   -3.6,   -3.5,   -3.6,   -3.3,   -2.9,   -2.2,   -1.3,   -0.6,   -0.3,   -0.2,   -0.6,   -1.2,   -1.3,   -1.7,   -2.5,   -3.4,   -3.8,   -4.2,   -4.7,   -4.9,   -5.5,   -5.5,   -5.5,   -5.4,   -5.1,   -5.0,   -5.0,   -5.1,   -5.3,   -5.5,   -5.6,   -5.7,   -5.5,   -5.0,   -4.3,   -3.9
2010/10/27 21:00,    5.3,  999.0,  999.0,  -20.8,  -21.1,  -21.2,  -21.1,  -17.7,  -21.0,  -29.3,  -29.4,  -28.0,  -27.6,  -28.1,  -28.6,  -28.9,  -29.3,  -28.1,  -27.4,  -27.1,  -27.9,  -28.8,  -21.4,  -21.9,  -22.7,  999.0,  999.0,  999.0,    0.8,    0.0,   -0.3,    0.1,    0.6,    0.8,    0.3,   -0.6,   -1.5,   -2.0,  999.0,  999.0,  999.0,   -3.4,   -4.5,   -4.4,  999.0,   -5.3,  999.0,   -6.7,   -7.1,   -7.2,   -7.1,   -7.2,   -7.3,   -7.2,   -7.0,   -6.9,   -6.8,   -7.0,   -7.4,   -7.5,   -7.5,   -7.1,   -6.4,   -5.6,   -5.4,   -5.1,   -4.7,   -4.3,   -3.9,   -3.3,   -2.8,   -2.2,   -1.6,   -1.5,   -1.6,   -1.8,   -2.0,   -2.4,   -2.6,   -3.7,   -4.1,   -4.3,   -5.4,   -5.5,   -5.1,   -4.8,   -4.1,   -4.2,   -4.6,   -5.1,   -5.6,   -5.8,   -5.7,   -5.5,   -5.2,   -4.6,   -4.4,   -4.2
2010/10/27 21:10,    5.7,    6.0,    6.0,    5.6,    4.1,    3.4,    3.9,    4.2,    5.2,    5.4,    6.4,    8.2,    8.0,    2.1,   -1.0,    4.3,    6.6,    3.2,    5.9,    6.1,    5.8,    4.3,    2.8,    2.5,    2.5,    1.5,    0.8,    0.0,   -1.1,   -0.5,   -0.1,    0.2,   -0.2,   -1.1,   -2.2,   -2.8,   -3.2,   -2.6,   -2.8,   -3.0,  999.0,  999.0,   -3.4,   -3.2,   -3.9,   -4.5,   -4.7,   -5.3,   -5.8,   -6.2,   -6.0,   -6.2,   -6.4,   -6.4,   -6.4,   -6.1,   -5.9,   -5.7,   -5.6,   -5.6,   -5.2,   -4.8,   -4.3,   -3.6,   -2.9,   -2.4,   -2.2,   -2.1,   -1.9,   -1.8,   -1.7,   -1.2,   -0.6,   -0.2,   -0.5,   -0.6,   -0.5,   -0.5,   -0.7,   -0.7,   -0.8,   -1.0,   -0.9,   -0.8,   -0.8,   -0.9,   -0.7,   -0.6,   -0.5,   -0.7,   -1.0,   -1.6,   -2.2,   -2.5,   -2.9,   -3.2,   -3.3,   -3.5
2010/10/27 21:20,    4.9,    5.6,    5.2,    4.5,    3.0,    2.9,    3.1,    3.5,    3.9,    4.8,    6.4,    7.0,    7.1,    6.6,    6.4,    6.4,    6.3,    6.7,    6.9,    6.9,    6.6,    5.2,    4.2,    3.7,    3.7,    3.5,    1.7,    0.5,    0.1,    0.5,    1.1,    0.4,   -0.9,   -2.1,   -2.6,   -2.9,   -2.4,   -2.6,   -2.0,  999.0,  999.0,  999.0,  999.0,   -2.1,   -3.3,   -4.4,   -5.2,   -5.5,   -5.4,   -5.2,   -5.1,   -5.2,   -5.4,   -5.4,   -5.7,   -5.8,   -5.8,   -5.4,   -5.0,   -4.8,   -4.6,   -4.0,   -2.8,   -2.1,   -1.8,   -1.5,   -0.8,   -0.1,    1.1,    1.3,    1.1,    1.4,    1.4,    1.1,    0.6,    0.0,   -0.2,   -0.2,   -0.3,   -0.3,   -0.2,   -0.3,   -0.0,    0.3,    0.3,    0.5,    0.3,   -0.1,   -0.8,   -1.2,   -1.7,   -2.1,   -2.6,   -2.9,   -3.2,   -3.3,   -3.5,   -3.8
2010/10/27 21:30,    3.9,    4.7,    4.7,    4.4,    3.1,    2.8,    2.6,    3.0,    3.8,    5.1,    6.1,    6.6,    7.4,    6.9,    6.7,    6.5,    7.0,    7.1,    7.2,    6.5,    5.3,    4.2,    3.6,    3.6,    3.3,    2.1,    0.2,   -0.2,    0.1,   -0.5,   -1.1,   -2.2,   -2.6,   -2.8,   -2.9,   -2.7,   -2.8,   -2.7,   -2.9,  999.0,  999.0,  999.0,   -1.4,   -1.6,   -2.5,  999.0,  999.0,   -4.9,   -5.0,   -5.1,   -5.5,   -5.9,   -6.3,   -6.6,   -7.2,   -7.6,   -7.3,   -6.6,   -5.7,   -5.0,   -4.1,   -2.4,   -1.1,    0.1,    0.7,    0.7,    0.2,   -0.5,   -1.4,   -1.7,   -1.8,   -1.7,   -1.8,   -2.0,   -1.9,   -1.8,   -1.8,   -1.7,   -1.7,   -1.7,   -1.8,   -2.0,   -2.3,   -2.2,   -2.5,   -2.3,   -2.4,   -2.4,   -2.3,   -1.9,   -1.8,   -1.6,   -1.9,   -2.1,   -2.3,   -2.5,   -2.5,   -2.7
2010/10/27 21:40,    3.5,    3.6,    4.5,    4.4,    3.3,    2.4,    2.9,    3.5,    4.7,    5.6,    5.9,    6.9,    6.5,    6.2,    5.6,    6.1,    6.1,    7.0,    6.6,    5.7,    4.7,    3.7,    3.2,    3.2,    2.6,    1.4,    0.3,    0.2,    0.6,   -0.6,   -1.9,   -2.8,   -2.7,   -2.5,   -2.6,   -2.6,   -2.7,   -2.5,   -2.5,   -2.2,  999.0,  999.0,   -3.1,   -3.8,   -3.5,   -4.7,   -4.0,   -4.9,   -5.7,   -6.2,   -7.0,   -7.0,   -7.4,   -7.8,   -8.0,   -7.9,   -7.1,   -6.0,   -4.7,   -3.2,   -2.1,   -1.6,   -1.5,   -1.2,   -1.1,   -1.3,   -1.5,   -1.4,   -1.9,   -2.3,   -2.5,   -2.8,   -2.7,   -2.7,   -2.6,   -3.2,   -3.5,   -2.9,   -2.9,   -2.9,   -3.0,   -2.8,   -3.0,   -3.0,   -3.2,   -3.5,   -3.6,   -4.0,   -3.8,   -3.6,   -3.3,   -2.9,   -2.5,   -2.6,   -2.7,   -3.0,   -3.6,   -4.0
2010/10/27 21:50,    3.0,    3.1,    4.4,    4.1,    3.7,    3.1,    3.2,    3.9,    5.2,    5.5,    6.3,    7.0,    7.0,    6.9,    6.6,    6.9,    7.0,    7.0,    6.9,    5.8,    4.4,    3.3,    3.3,   -5.2,   -6.2,    0.7,    0.1,    0.1,   -0.1,   -0.8,   -1.9,   -2.2,   -2.0,   -1.7,   -1.7,   -1.6,   -1.3,   -1.8,   -1.8,   -1.9,   -1.6,   -2.5,   -3.1,   -3.3,  999.0,  999.0,  999.0,   -5.7,   -6.6,   -7.4,   -8.2,   -9.1,   -9.4,   -8.8,   -7.7,   -6.6,   -5.2,   -4.0,   -3.4,   -2.6,   -1.6,   -1.3,   -1.3,   -1.6,   -2.1,   -2.5,   -2.7,   -2.7,   -2.5,   -2.5,   -2.6,   -2.8,   -2.7,   -2.7,   -2.8,   -2.9,   -3.4,   -3.7,   -4.1,   -4.2,   -4.4,   -4.6,   -4.7,   -4.9,   -5.0,   -4.9,   -5.0,   -4.9,   -4.9,   -4.7,   -4.8,   -4.6,   -4.6,   -4.7,   -4.7,   -4.7,   -4.8,   -5.0
2010/10/27 22:00,    3.0,  999.0,  999.0,  -19.1,  -22.1,  -13.6,  -14.1,  -13.8,  -16.4,  -30.3,  -29.3,  -29.4,  -28.6,  -28.2,  -27.9,  -28.4,  -28.5,  -28.8,  -30.7,  -32.4,  -31.7,  -31.5,  -31.8,  -32.9,  -33.4,  -33.6,  -32.9,  999.0,  999.0,  999.0,  999.0,  999.0,  999.0,  999.0,   34.5,   35.0,   34.6,  999.0,  999.0,  999.0,  999.0,  999.0,  999.0,  999.0,  999.0,   -4.2,   -4.9,   -5.7,   -6.6,   -7.4,   -8.3,   -9.0,   -9.1,   -8.4,   -7.4,   -5.9,   -4.1,   -3.1,   -2.7,   -2.8,   -2.8,   -2.8,   -2.6,   -2.8,   -2.9,   -3.2,   -3.1,   -3.1,   -3.2,   -3.5,   -3.7,   -3.9,   -4.1,   -4.0,   -4.0,   -3.7,   -3.5,   -3.4,   -3.2,   -3.3,   -3.6,   -4.2,   -4.4,   -4.7,   -4.9,   -5.2,   -5.4,   -5.8,   -5.6,   -5.8,   -5.9,   -5.7,   -5.4,   -5.3,   -5.0,   -4.6,   -4.2,   -3.9
2010/10/27 22:10,    3.0,    3.2,  999.0,  999.0,  999.0,  999.0,  -31.1,  -30.9,  -30.7,  -29.5,  -29.0,  -28.9,  -28.4,  -28.0,  -28.2,  -28.4,  -28.7,  -29.2,  -31.0,  -32.5,  -33.2,  -32.6,  -33.4,  -33.9,  -33.9,  -34.0,  -34.0,  999.0,  999.0,  999.0,  999.0,  999.0,   33.4,   33.3,   33.4,   33.6,   33.4,   33.6,   34.0,  999.0,  999.0,   -2.5,   -3.4,  999.0,  999.0,   -5.3,   -6.3,   -7.0,   -7.9,   -8.6,   -9.2,   -9.4,   -8.6,   -7.4,   -6.4,   -5.2,   -4.0,   -3.2,   -2.7,   -2.6,   -2.8,   -3.2,   -3.7,   -4.2,   -5.0,   -5.3,   -5.2,   -5.2,   -5.1,   -5.2,   -5.0,   -4.9,   -4.8,   -4.6,   -4.3,   -4.0,   -3.8,   -3.5,   -3.5,   -3.3,   -3.3,   -3.3,   -3.4,   -3.8,   -3.9,   -4.4,   -5.0,   -5.8,   -5.8,   -6.1,   -6.2,   -6.2,   -6.3,   -6.1,   -6.0,   -5.8,   -5.2,   -4.7
2010/10/27 22:20,    3.4,    3.6,  999.0,  999.0,  999.0,  999.0,  -29.9,  -30.5,  -30.3,  -29.3,  -28.7,  -28.3,  -27.8,  -27.5,  -27.9,  -28.6,  -28.1,  -29.1,  -31.4,  -32.2,  -32.5,  -32.4,  -21.4,  -21.6,   -9.0,  -15.8,    1.7,   -0.2,   -1.1,   -1.2,   -1.6,   -0.8,   -1.0,   -1.0,   -1.2,   -1.5,   -1.3,   -0.7,   -0.5,  999.0,  999.0,   -3.6,   -3.9,   -4.0,   -4.6,   -4.8,   -5.9,   -6.9,   -7.9,   -8.7,   -9.3,   -9.4,   -8.9,   -8.4,   -7.4,   -6.1,   -5.1,   -4.5,   -4.0,   -3.6,   -3.9,   -4.3,   -5.3,   -6.0,   -6.5,   -6.8,   -6.9,   -6.8,   -6.6,   -6.3,   -5.9,   -5.8,   -5.8,   -5.7,   -5.7,   -5.8,   -5.5,   -5.3,   -5.0,   -4.8,   -4.6,   -4.7,   -4.7,   -4.7,   -4.7,   -4.9,   -4.9,   -5.1,   -5.1,   -5.0,   -5.1,   -5.4,   -5.8,   -6.1,   -6.2,   -6.1,   -6.0,   -6.0
2010/10/27 22:30,    4.3,    4.2,    4.6,  999.0,    5.7,    6.1,    5.8,    5.9,  -17.4,  -16.8,  999.0,   -9.7,  999.0,  999.0,   -9.2,  999.0,   -4.2,  999.0,  999.0,  999.0,  999.0,    3.6,    2.7,    2.4,    2.0,    0.8,   -0.1,   -1.0,   -1.8,   -1.5,   -1.4,   -1.0,   -1.2,   -1.1,   -1.5,   -3.2,   -1.3,   -0.1,   -0.6,   -0.6,  999.0,  999.0,  999.0,  999.0,  999.0,  999.0,  999.0,  999.0,   -6.1,   -6.6,   -7.2,   -7.9,   -8.3,   -8.6,   -9.2,   -9.0,   -8.4,   -8.2,   -8.0,   -7.9,   -7.5,   -7.0,   -7.2,   -7.3,   -7.0,   -6.6,   -6.2,   -5.8,   -5.6,   -5.5,   -5.1,   -5.2,   -4.9,   -5.2,   -6.0,   -6.9,   -7.4,   -7.7,   -7.7,   -7.4,   -7.3,   -7.1,   -7.1,   -6.8,   -6.6,   -6.2,   -5.9,   -4.7,   -4.0,   -3.7,   -3.8,   -3.8,   -3.9,   -4.1,   -4.3,   -4.2,   -4.0,   -3.0
2010/10/27 22:40,    5.1,    4.5,    5.1,    6.1,    6.2,    6.4,    6.2,    6.3,    6.6,    7.3,    7.5,    8.0,    8.7,    8.9,    7.9,    7.8,    7.4,    6.2,    4.0,    3.0,    3.5,    2.6,    2.1,    1.7,    0.3,   -0.5,   -2.4,   -2.6,   -2.6,   -3.4,   -2.9,   -2.6,   -3.4,   -3.0,   -4.0,   -3.1,   -2.9,   -4.4,   -3.0,   -2.8,   -2.9,   -2.9,   -1.0,  999.0,  999.0,  999.0,  999.0,   -4.2,   -4.4,   -4.8,   -5.5,   -6.0,   -6.7,   -7.3,   -7.8,   -8.1,   -8.1,   -7.9,   -8.0,   -7.8,   -7.0,   -6.3,   -6.0,   -6.4,   -6.4,   -5.7,   -4.6,   -3.8,   -3.4,   -3.2,   -3.0,   -3.1,   -3.9,   -4.9,   -5.6,   -5.9,   -6.4,   -6.6,   -7.0,   -7.3,   -7.5,   -7.5,   -7.5,   -7.4,   -7.3,   -6.9,   -6.5,   -5.9,   -5.7,   -5.3,   -4.8,   -4.6,   -4.4,   -4.3,   -4.0,   -3.6,   -3.5,   -3.2
2010/10/27 22:50,    5.7,    5.6,    6.0,    6.5,    6.9,    6.6,    6.0,    5.9,    6.9,    7.5,    8.0,    9.1,    9.0,    8.0,    7.8,    7.9,    7.1,    5.6,    3.8,    3.4,    2.9,    2.0,    2.1,    1.3,    0.7,   -0.7,   -0.7,   -1.0,   -1.8,   -1.5,   -1.8,   -1.7,   -1.3,   -1.4,   -1.6,   -2.1,   -2.8,   -2.6,   -2.3,   -2.7,   -2.2,   -2.4,   -2.9,   -2.1,   -3.1,  999.0,  999.0,   -3.0,   -3.8,   -5.1,   -5.9,   -6.3,   -6.6,   -6.9,   -7.3,   -7.9,   -8.3,   -8.3,   -8.2,   -8.1,   -7.7,   -7.1,   -6.3,   -5.5,   -5.0,   -4.3,   -3.7,   -3.1,   -2.6,   -2.2,   -1.8,   -1.7,   -2.1,   -2.6,   -3.5,   -4.8,   -5.4,   -6.2,   -6.8,   -7.1,   -7.6,   -7.6,   -7.4,   -7.0,   -6.6,   -6.4,   -6.0,   -5.5,   -5.2,   -4.7,   -4.5,   -4.3,   -4.0,   -4.1,   -4.5,   -4.0,   -3.8,   -3.6
2010/10/27 23:00,    5.0,    5.9,    7.0,    7.3,    7.0,    6.7,    6.2,    6.2,    6.9,    7.5,    8.4,    8.5,    7.9,    7.8,    8.8,    9.1,    8.3,    6.5,    5.0,    3.7,    3.4,    2.9,    2.2,    1.9,    1.7,   -0.3,   -0.9,   -1.5,   -2.9,   -2.3,   -1.8,   -3.6,   -2.8,   -3.3,   -3.2,   -3.6,   -4.3,  999.0,  999.0,   -4.6,   -4.6,   -4.9,   -4.6,   -3.1,   -1.7,  999.0,   -2.8,   -4.3,   -4.9,   -5.2,   -5.6,   -6.1,   -6.4,   -6.7,   -7.4,   -8.3,   -8.9,   -8.6,   -8.8,   -8.1,   -7.2,   -6.5,   -5.5,   -5.1,   -5.1,   -5.0,   -4.6,   -4.1,   -3.7,   -3.4,   -2.6,   -1.8,   -1.4,   -1.3,   -1.4,   -1.5,   -1.6,   -2.1,   -2.6,   -2.8,   -2.9,   -3.0,   -3.2,   -3.6,   -3.9,   -4.2,   -4.1,   -4.1,   -3.6,   -3.2,   -3.0,   -2.7,   -2.7,   -2.7,   -2.8,   -3.1,   -3.0,   -2.9
2010/10/27 23:10,    5.1,    6.0,    6.9,    6.7,    5.7,    5.8,    6.6,    7.4,    8.4,    9.0,    8.3,    8.3,    8.2,    8.3,    8.9,    8.3,    7.1,    6.3,    4.7,    3.8,    4.0,    3.4,    3.2,    2.6,    2.0,    1.2,    0.7,   -0.6,   -1.1,   -1.2,   -1.6,   -2.1,   -2.8,   -2.7,   -2.9,   -3.1,   -2.9,   -2.8,   -2.9,   -3.1,   -2.6,   -2.2,   -2.4,   -3.3,   -3.8,  999.0,  999.0,   -6.5,   -6.7,   -6.4,   -6.6,   -6.8,   -7.3,   -7.7,   -8.3,   -8.9,   -9.5,   -9.9,   -9.3,   -8.1,   -7.5,   -7.0,   -6.3,   -5.7,   -5.2,   -5.3,   -4.9,   -4.3,   -3.7,   -2.5,   -2.0,   -1.0,   -0.6,   -0.4,    0.1,    0.7,    0.8,    0.8,    0.8,    0.7,    0.6,    0.4,    0.3,    0.1,   -0.4,   -0.8,   -1.1,   -1.4,   -1.4,   -1.3,   -1.4,   -1.7,   -1.8,   -1.6,   -1.9,   -1.5,   -1.2,   -0.6
2010/10/27 23:20,    4.8,    6.0,    6.8,    6.4,    6.2,    6.6,    7.7,    8.4,    8.9,    9.3,   10.3,   10.4,    9.1,    8.4,    8.5,    8.7,    7.9,    6.5,    5.2,    4.2,    3.4,    2.7,    2.3,    1.4,    1.1,   -1.1,   -1.3,   -2.2,   -2.6,   -2.9,   -3.4,   -3.6,   -4.2,   -4.2,   -2.9,   -4.2,   -3.8,   -4.1,   -3.8,   -4.0,   -3.6,   -3.6,  999.0,   -3.7,  999.0,  999.0,  999.0,   -6.0,   -6.8,   -6.9,   -7.4,   -7.4,   -7.4,   -7.7,   -8.4,   -9.1,   -9.6,   -9.6,   -8.6,   -7.8,   -7.0,   -6.0,   -5.0,   -4.0,   -2.9,   -2.1,   -1.2,   -1.0,   -0.7,   -0.6,   -0.5,    0.1,    0.3,    1.7,    2.2,    2.4,    2.6,    2.7,    2.8,    3.2,    3.8,    3.5,    3.5,    3.4,    3.0,    2.7,    2.4,    2.2,    2.2,    2.1,    2.1,    2.2,    2.2,    2.3,    2.2,    2.1,    1.9,    1.9
2010/10/27 23:30,    5.4,    5.8,    6.9,    6.5,    6.5,    7.8,   -0.5,    2.0,    3.3,    1.8,   -0.9,    1.7,    9.7,    1.7,    8.6,    2.0,    2.1,    0.5,    5.4,    4.5,    3.9,    3.6,    2.9,    2.6,    0.7,   -0.3,   -1.2,   -0.9,   -1.7,   -2.6,   -2.3,   -2.8,   -3.1,   -2.6,   -1.1,   -1.0,   -2.4,  999.0,  999.0,   -0.6,   -0.8,  999.0,  999.0,   -2.8,  999.0,  999.0,  999.0,   -6.1,   -6.4,   -6.9,   -7.0,   -7.1,   -7.4,   -7.8,   -8.4,   -8.8,   -8.8,   -8.1,   -7.3,   -6.5,   -5.1,   -3.5,   -2.3,   -1.0,   -0.0,    1.3,    1.7,    1.7,    1.7,    1.9,    2.6,    3.5,    4.2,    4.6,    4.6,    4.6,    4.6,    4.6,    4.6,    4.6,    4.8,    4.8,    4.6,    4.6,    4.5,    4.1,    4.1,    3.9,    3.8,    3.8,    3.8,    4.0,    4.3,    4.4,    4.4,    4.4,    4.5,    4.2
2010/10/27 23:40,  999.0,  -28.1,  -28.9,  -27.5,  -28.1,  -26.6,  -24.9,  -24.5,  -25.1,  -25.2,  -24.5,  -24.0,  -24.8,  -25.0,  -24.9,  999.0,  999.0,  999.0,  999.0,  999.0,    4.4,    4.3,   -4.9,   -5.4,    1.6,   -0.2,   -1.2,   -1.1,   -1.4,   -2.4,   -2.4,   -1.9,   -1.8,   -1.8,   -2.1,  999.0,  999.0,  999.0,  999.0,  999.0,   -2.4,  999.0,   -4.9,  999.0,  999.0,  999.0,   -6.0,   -6.4,   -6.5,   -6.6,   -6.8,   -7.1,   -7.3,   -7.6,   -7.7,   -7.3,   -6.8,   -5.9,   -4.6,   -3.9,   -2.1,   -0.5,    1.0,    2.4,    3.4,    3.9,    4.1,    3.9,    4.0,    4.2,    4.3,    4.4,    4.4,    4.4,    4.4,    4.3,    4.5,    4.6,    4.7,    4.8,    4.8,    4.6,    4.6,    4.5,    4.4,    4.2,    4.1,    3.9,    3.9,    3.7,    3.6,    3.6,    3.7,    3.7,    3.9,    4.1,    4.3,    4.3
2010/10/27 23:50,  999.0,    6.6,    6.5,    6.8,    8.6,    9.3,  999.0,  999.0,  -25.1,  -24.9,  999.0,  -23.9,   -7.0,   10.2,    9.4,    9.0,    8.0,    6.0,    5.5,    4.8,    4.5,    4.2,    3.1,    1.9,    0.4,    0.1,   -1.7,   -1.6,   -2.8,   -2.4,   -2.7,   -2.8,   -2.3,   -2.4,   -2.1,   -2.5,   -2.3,   -2.4,   -2.8,   -3.2,   -2.8,  999.0,  999.0,  999.0,  999.0,  999.0,   -6.7,   -6.9,   -6.9,   -6.3,   -6.4,   -6.1,   -5.8,   -5.1,   -4.5,   -3.5,   -2.1,   -0.9,   -0.6,   -0.9,   -1.5,   -2.1,   -2.3,   -2.1,   -2.0,   -1.6,   -1.2,    0.3,    0.5,    0.9,    1.3,    0.9,    1.3,    1.3,    1.2,    1.1,    0.9,    0.8,    1.3,    1.3,    1.3,    1.4,    1.4,    1.4,    1.7,    2.2,    3.0,    3.5,    3.8,    4.1,    4.2,    4.1,    3.9,    3.9,    4.0,    4.2,    4.3,    4.1
